GREAT EAST LAKE DAM: From 07/21/2020 00:00 to 09/22/2020 00:00

Date LAKE ELEVATION [FT] PRECIPITATION INCREMENT [IN] PRECIPITATION TOTAL [IN] AIR TEMPERATURE [F] RELATIVE HUMIDITY [%]
09/19/2020 09:00 573.58 0.00 -- 44.3 34.0
09/19/2020 08:00 573.59 0.00 -- 42.4 36.0
09/19/2020 07:00 573.60 0.00 -- 40.8 38.0
09/19/2020 06:00 573.59 0.00 -- 40.2 40.0
09/19/2020 05:00 573.59 0.00 -- 41.1 45.0
09/19/2020 04:00 573.60 0.00 -- 41.5 52.0
09/19/2020 03:00 573.60 0.00 -- 46.5 62.0
09/19/2020 02:00 573.60 0.00 -- 47.5 66.0
09/19/2020 01:00 573.59 0.00 -- 48.4 61.0
09/19/2020 00:00 573.58 0.00 -- 48.3 60.0
09/18/2020 23:00 573.60 0.00 -- 51.2 72.0
09/18/2020 22:00 573.59 0.00 -- 53.4 74.0
09/18/2020 21:00 573.61 0.00 -- 56.0 52.0
09/18/2020 20:00 573.59 0.00 -- 56.9 44.0
09/18/2020 19:00 573.60 0.00 -- 60.5 45.0
09/18/2020 18:00 573.60 0.00 -- 61.1 46.0
09/18/2020 17:00 573.60 0.00 -- 61.8 49.0
09/18/2020 16:00 573.60 0.00 -- 61.3 45.0
09/18/2020 15:00 573.60 0.00 -- 59.5 40.0
09/18/2020 14:00 573.61 0.00 -- 56.1 40.0
09/18/2020 13:00 573.60 0.00 -- 52.8 41.0
09/18/2020 12:00 573.60 0.00 -- 52.0 39.0
09/18/2020 11:00 573.59 0.00 -- 51.3 36.0
09/18/2020 10:00 573.60 0.00 -- 51.0 31.0
09/18/2020 09:00 573.62 0.00 -- 49.6 29.0
09/18/2020 08:00 573.60 0.00 -- 49.0 31.0
09/18/2020 07:00 573.60 0.00 -- 50.5 33.0
09/18/2020 06:00 573.59 0.00 -- 51.8 34.0
09/18/2020 05:00 573.60 0.00 -- 53.7 35.0
09/18/2020 04:00 573.61 0.00 -- 53.5 35.0
09/18/2020 03:00 573.62 0.00 -- 54.2 35.0
09/18/2020 02:00 573.60 0.00 -- 54.8 37.0
09/18/2020 01:00 573.61 0.00 -- 54.4 37.0
09/18/2020 00:00 573.60 0.00 0.00 54.4 39.0
09/17/2020 23:00 573.61 0.00 -- 56.9 42.0
09/17/2020 22:00 573.59 0.00 -- 59.9 40.0
09/17/2020 21:00 573.60 0.00 -- 60.7 41.0
09/17/2020 20:00 573.59 0.00 -- 61.9 42.0
09/17/2020 19:00 573.60 0.00 -- 63.7 44.0
09/17/2020 18:00 573.61 0.00 -- 66.9 45.0
09/17/2020 17:00 573.61 0.00 -- 68.5 44.0
09/17/2020 16:00 573.59 0.00 -- 69.7 44.0
09/17/2020 15:00 573.59 0.00 -- 69.9 42.0
09/17/2020 14:00 573.61 0.00 -- 67.7 40.0
09/17/2020 13:00 573.59 0.00 -- 66.2 40.0
09/17/2020 12:00 573.60 0.00 -- 63.5 39.0
09/17/2020 11:00 573.61 0.00 -- 62.0 39.0
09/17/2020 10:00 573.61 0.00 -- 59.3 39.0
09/17/2020 09:00 573.61 0.00 -- 56.3 39.0
09/17/2020 08:00 573.60 0.00 -- 55.7 39.0
09/17/2020 07:00 573.59 0.00 -- 54.3 38.0
09/17/2020 06:00 573.61 0.00 -- 56.8 40.0
09/17/2020 05:00 573.59 0.00 -- 57.4 41.0
09/17/2020 04:00 573.60 0.00 -- 58.5 43.0
09/17/2020 03:00 573.61 0.00 -- 59.0 44.0
09/17/2020 02:00 573.60 0.00 -- 59.9 47.0
09/17/2020 01:00 573.59 0.00 -- 60.9 47.0
09/17/2020 00:00 573.61 0.00 0.00 61.8 49.0
09/16/2020 23:00 573.62 0.00 -- 63.0 51.0
09/16/2020 22:00 573.59 0.00 -- 64.5 52.0
09/16/2020 21:00 573.61 0.00 -- 65.2 55.0
09/16/2020 20:00 573.62 0.00 -- 66.4 58.0
09/16/2020 19:00 573.59 0.00 -- 68.7 61.0
09/16/2020 18:00 573.62 0.00 -- 70.7 64.0
09/16/2020 17:00 573.62 0.00 -- 72.3 57.0
09/16/2020 16:00 573.60 0.00 -- 72.8 48.0
09/16/2020 15:00 573.62 0.00 -- 71.7 47.0
09/16/2020 14:00 573.62 0.00 -- 69.2 44.0
09/16/2020 13:00 573.61 0.00 -- 65.4 45.0
09/16/2020 12:00 573.63 0.00 -- 58.0 47.0
09/16/2020 11:00 573.62 0.00 -- 57.3 48.0
09/16/2020 10:00 573.62 0.00 -- 53.3 50.0
09/16/2020 09:00 573.62 0.00 -- 48.1 52.0
09/16/2020 08:00 573.63 0.00 -- 48.3 59.0
09/16/2020 07:00 573.62 0.00 -- 48.5 63.0
09/16/2020 06:00 573.63 0.00 -- 49.5 67.0
09/16/2020 05:00 573.63 0.00 -- 49.4 74.0
09/16/2020 04:00 573.63 0.00 -- 47.0 79.0
09/16/2020 03:00 573.63 0.00 -- 46.8 85.0
09/16/2020 02:00 573.62 0.00 -- 47.0 94.0
09/16/2020 01:00 573.62 0.00 -- 47.0 98.0
09/16/2020 00:00 573.63 0.00 0.00 50.0 100.0
09/15/2020 23:00 573.65 0.00 -- 48.3 100.0
09/15/2020 22:00 573.64 0.00 -- 49.4 100.0
09/15/2020 21:00 573.64 0.00 -- 49.9 100.0
09/15/2020 20:00 573.62 0.00 -- 54.1 100.0
09/15/2020 19:00 573.63 0.00 -- 57.6 100.0
09/15/2020 18:00 573.64 0.00 -- 60.4 100.0
09/15/2020 17:00 573.63 0.00 -- 61.4 100.0
09/15/2020 16:00 573.63 0.00 -- 61.8 100.0
09/15/2020 15:00 573.63 0.00 -- 61.1 100.0
09/15/2020 14:00 573.63 0.00 -- 59.8 100.0
09/15/2020 13:00 573.63 0.00 -- 57.1 100.0
09/15/2020 12:00 573.63 0.00 -- 54.6 100.0
09/15/2020 11:00 573.63 0.00 -- 52.4 100.0
09/15/2020 10:00 573.63 0.00 -- 49.2 100.0
09/15/2020 09:00 573.64 0.00 -- 43.3 100.0
09/15/2020 08:00 573.64 0.00 -- 40.2 100.0
09/15/2020 07:00 573.64 0.00 -- 40.7 100.0
09/15/2020 06:00 573.64 0.00 -- 41.9 100.0
09/15/2020 05:00 573.64 0.00 -- 43.9 100.0
09/15/2020 04:00 573.65 0.00 -- 45.4 100.0
09/15/2020 03:00 573.63 0.00 -- 44.9 100.0
09/15/2020 02:00 573.64 0.00 -- 46.0 100.0
09/15/2020 01:00 573.63 0.00 -- 46.0 100.0
09/15/2020 00:00 573.63 0.00 0.00 48.7 100.0
09/14/2020 23:00 573.67 0.00 -- 53.0 100.0
09/14/2020 22:00 573.65 0.00 -- 54.7 100.0
09/14/2020 21:00 573.64 0.00 -- 56.3 100.0
09/14/2020 20:00 573.66 0.00 -- 58.9 100.0
09/14/2020 19:00 573.65 0.00 -- 62.1 100.0
09/14/2020 18:00 573.68 0.00 -- 64.8 100.0
09/14/2020 17:00 573.65 0.00 -- 66.4 100.0
09/14/2020 16:00 573.65 0.00 -- 68.2 100.0
09/14/2020 15:00 573.66 0.00 -- 68.3 100.0
09/14/2020 14:00 573.64 0.00 -- 67.8 100.0
09/14/2020 13:00 573.65 0.00 -- 67.0 100.0
09/14/2020 12:00 573.65 0.00 -- 66.6 94.0
09/14/2020 11:00 573.66 0.00 -- 66.3 81.0
09/14/2020 10:00 573.68 0.00 -- 65.4 74.0
09/14/2020 09:00 573.66 0.00 -- 64.2 68.0
09/14/2020 08:00 573.65 0.00 -- 63.7 68.0
09/14/2020 07:00 573.65 0.00 -- 64.4 70.0
09/14/2020 06:00 573.68 0.00 -- 65.3 72.0
09/14/2020 05:00 573.67 0.00 -- 61.8 76.0
09/14/2020 04:00 573.68 0.00 -- 63.0 77.0
09/14/2020 03:00 573.65 0.00 -- 63.9 79.0
09/14/2020 02:00 573.67 0.00 -- 64.0 82.0
09/14/2020 01:00 573.66 0.00 -- 65.3 87.0
09/14/2020 00:00 573.66 0.00 0.00 65.0 87.0
09/13/2020 23:00 573.67 0.00 -- 63.6 90.0
09/13/2020 22:00 573.66 0.00 -- 64.0 92.0
09/13/2020 21:00 573.68 0.00 -- 64.3 94.0
09/13/2020 20:00 573.64 0.00 -- 65.1 98.0
09/13/2020 19:00 573.65 0.00 -- 66.2 100.0
09/13/2020 18:00 573.65 0.00 -- 67.6 100.0
09/13/2020 17:00 573.64 0.00 -- 68.7 100.0
09/13/2020 16:00 573.66 0.00 -- 69.3 100.0
09/13/2020 15:00 573.69 0.00 -- 68.8 100.0
09/13/2020 14:00 573.71 0.00 -- 66.6 100.0
09/13/2020 13:00 573.67 0.00 -- 65.0 100.0
09/13/2020 12:00 573.68 0.00 -- 62.0 100.0
09/13/2020 11:00 573.67 0.00 -- 60.5 100.0
09/13/2020 10:00 573.65 0.00 -- 57.6 100.0
09/13/2020 09:00 573.66 0.00 -- 52.5 100.0
09/13/2020 08:00 573.66 0.00 -- 49.2 100.0
09/13/2020 07:00 573.66 0.00 -- 48.4 100.0
09/13/2020 06:00 573.67 0.00 -- 48.0 100.0
09/13/2020 05:00 573.67 0.00 -- 49.3 100.0
09/13/2020 04:00 573.68 0.00 -- 48.8 100.0
09/13/2020 03:00 573.67 0.00 -- 50.9 100.0
09/13/2020 02:00 573.67 0.00 -- 51.5 100.0
09/13/2020 01:00 573.67 0.00 -- 53.2 100.0
09/13/2020 00:00 573.69 0.00 0.00 53.0 100.0
09/12/2020 23:00 573.67 0.00 -- 55.2 100.0
09/12/2020 22:00 573.68 0.00 -- 54.9 100.0
09/12/2020 21:00 573.67 0.00 -- 56.0 100.0
09/12/2020 20:00 573.67 0.00 -- 58.2 100.0
09/12/2020 19:00 573.67 0.00 -- 61.9 100.0
09/12/2020 18:00 573.69 0.00 -- 64.3 100.0
09/12/2020 17:00 573.69 0.00 -- 66.0 100.0
09/12/2020 16:00 573.68 0.00 -- 68.1 100.0
09/12/2020 15:00 573.69 0.00 -- 67.5 100.0
09/12/2020 14:00 573.69 0.00 -- 65.8 100.0
09/12/2020 13:00 573.68 0.00 -- 63.9 100.0
09/12/2020 12:00 573.68 0.00 -- 60.7 100.0
09/12/2020 11:00 573.68 0.00 -- 57.6 100.0
09/12/2020 10:00 573.67 0.00 -- 53.7 100.0
09/12/2020 09:00 573.69 0.00 -- 49.9 100.0
09/12/2020 08:00 573.69 0.00 -- 45.5 100.0
09/12/2020 07:00 573.68 0.00 -- 45.8 100.0
09/12/2020 06:00 573.69 0.00 -- 46.6 100.0
09/12/2020 05:00 573.69 0.00 -- 46.7 100.0
09/12/2020 04:00 573.69 0.00 -- 47.8 100.0
09/12/2020 03:00 573.68 0.00 -- 49.3 100.0
09/12/2020 02:00 573.69 0.00 -- 50.6 100.0
09/12/2020 01:00 573.69 0.00 -- 51.8 100.0
09/12/2020 00:00 573.69 0.00 0.00 52.2 100.0
09/11/2020 23:00 573.68 0.00 -- 54.1 100.0
09/11/2020 22:00 573.66 0.00 -- 54.4 100.0
09/11/2020 21:00 573.69 0.00 -- 56.6 100.0
09/11/2020 20:00 573.69 0.00 -- 60.4 100.0
09/11/2020 19:00 573.69 0.00 -- 64.4 100.0
09/11/2020 18:00 573.70 0.00 -- 66.4 100.0
09/11/2020 17:00 573.69 0.00 -- 67.7 100.0
09/11/2020 16:00 573.69 0.00 -- 68.2 100.0
09/11/2020 15:00 573.69 0.00 -- 66.6 100.0
09/11/2020 14:00 573.70 0.00 -- 65.7 100.0
09/11/2020 13:00 573.69 0.00 -- 63.1 100.0
09/11/2020 12:00 573.71 0.00 -- 61.5 100.0
09/11/2020 11:00 573.70 0.00 -- 61.1 100.0
09/11/2020 10:00 573.69 0.00 -- 60.5 89.0
09/11/2020 09:00 573.70 0.00 -- 60.5 78.0
09/11/2020 08:00 573.70 0.00 -- 61.8 69.0
09/11/2020 07:00 573.70 0.00 -- 63.7 63.0
09/11/2020 06:00 573.69 0.00 -- 64.9 62.0
09/11/2020 05:00 573.69 0.00 -- 65.6 58.0
09/11/2020 04:00 573.70 0.00 -- 66.2 54.0
09/11/2020 03:00 573.70 0.00 -- 67.4 54.0
09/11/2020 02:00 573.70 0.00 -- 69.8 52.0
09/11/2020 01:00 573.69 0.00 -- 71.0 53.0
09/11/2020 00:00 573.68 0.00 0.00 70.6 54.0
09/10/2020 23:00 573.69 0.00 -- 71.3 57.0
09/10/2020 22:00 573.70 0.00 -- 72.9 56.0
09/10/2020 21:00 573.71 0.00 -- 73.4 59.0
09/10/2020 20:00 573.71 0.00 -- 74.4 61.0
09/10/2020 19:00 573.70 0.00 -- 76.2 61.0
09/10/2020 18:00 573.70 0.00 -- 76.3 68.0
09/10/2020 17:00 573.71 0.00 -- 75.0 76.0
09/10/2020 16:00 573.72 0.00 -- 74.5 84.0
09/10/2020 15:00 573.72 0.00 -- 74.7 91.0
09/10/2020 14:00 573.70 0.00 -- 78.6 97.0
09/10/2020 13:00 573.70 0.00 -- 77.6 100.0
09/10/2020 12:00 573.71 0.00 -- 76.9 100.0
09/10/2020 11:00 573.71 0.00 -- 72.7 100.0
09/10/2020 10:00 573.71 0.00 -- 66.9 100.0
09/10/2020 09:00 573.72 0.00 -- 61.9 100.0
09/10/2020 08:00 573.70 0.00 -- 59.7 100.0
09/10/2020 07:00 573.70 0.00 -- 59.9 100.0
09/10/2020 06:00 573.70 0.00 -- 60.3 100.0
09/10/2020 05:00 573.71 0.00 -- 60.7 100.0
09/10/2020 04:00 573.70 0.00 -- 60.3 100.0
09/10/2020 03:00 573.70 0.00 -- 61.3 100.0
09/10/2020 02:00 573.70 0.00 -- 61.8 100.0
09/10/2020 01:00 573.70 0.00 -- 62.0 100.0
09/10/2020 00:00 573.70 0.00 0.00 62.4 98.0
09/09/2020 23:00 573.71 0.00 -- 63.9 95.0
09/09/2020 22:00 573.71 0.00 -- 65.6 94.0
09/09/2020 21:00 573.71 0.00 -- 68.2 90.0
09/09/2020 20:00 573.70 0.00 -- 70.3 90.0
09/09/2020 19:00 573.70 0.00 -- 73.9 90.0
09/09/2020 18:00 573.71 0.00 -- 76.4 89.0
09/09/2020 17:00 573.71 0.00 -- 78.7 86.0
09/09/2020 16:00 573.71 0.00 -- 80.9 84.0
09/09/2020 15:00 573.70 0.00 -- 80.9 82.0
09/09/2020 14:00 573.71 0.00 -- 80.7 84.0
09/09/2020 13:00 573.70 0.00 -- 78.0 90.0
09/09/2020 12:00 573.71 0.00 -- 74.7 100.0
09/09/2020 11:00 573.72 0.00 -- 69.7 100.0
09/09/2020 10:00 573.71 0.00 -- 66.8 100.0
09/09/2020 09:00 573.71 0.00 -- 63.8 100.0
09/09/2020 08:00 573.71 0.00 -- 61.5 100.0
09/09/2020 07:00 573.70 0.00 -- 61.3 100.0
09/09/2020 06:00 573.71 0.00 -- 61.6 100.0
09/09/2020 05:00 573.71 0.00 -- 62.3 100.0
09/09/2020 04:00 573.70 0.00 -- 63.2 100.0
09/09/2020 03:00 573.71 0.00 -- 63.8 100.0
09/09/2020 02:00 573.71 0.00 -- 64.7 100.0
09/09/2020 01:00 573.71 0.00 -- 65.9 100.0
09/09/2020 00:00 573.71 0.00 0.00 68.0 100.0
09/08/2020 23:00 573.71 0.00 -- 68.5 100.0
09/08/2020 22:00 573.70 0.00 -- 70.5 100.0
09/08/2020 21:00 573.71 0.00 -- 72.3 100.0
09/08/2020 20:00 573.71 0.00 -- 72.0 100.0
09/08/2020 19:00 573.71 0.00 -- 74.8 100.0
09/08/2020 18:00 573.71 0.00 -- 78.6 100.0
09/08/2020 17:00 573.71 0.00 -- 79.6 100.0
09/08/2020 16:00 573.72 0.00 -- 81.3 100.0
09/08/2020 15:00 573.73 0.00 -- 79.6 100.0
09/08/2020 14:00 573.71 0.00 -- 78.4 100.0
09/08/2020 13:00 573.72 0.00 -- 76.3 100.0
09/08/2020 12:00 573.72 0.00 -- 72.3 100.0
09/08/2020 11:00 573.71 0.00 -- 69.5 100.0
09/08/2020 10:00 573.72 0.00 -- 65.6 100.0
09/08/2020 09:00 573.71 0.00 -- 62.0 100.0
09/08/2020 08:00 573.72 0.00 -- 59.2 100.0
09/08/2020 07:00 573.71 0.00 -- 59.4 100.0
09/08/2020 06:00 573.73 0.00 -- 59.2 100.0
09/08/2020 05:00 573.73 0.00 -- 60.3 100.0
09/08/2020 04:00 573.72 0.00 -- 60.2 100.0
09/08/2020 03:00 573.71 0.00 -- 62.1 100.0
09/08/2020 02:00 573.71 0.00 -- 63.7 100.0
09/08/2020 01:00 573.71 0.00 -- 63.1 100.0
09/08/2020 00:00 573.71 0.00 0.00 63.8 100.0
09/07/2020 23:00 573.72 0.00 -- 65.6 100.0
09/07/2020 22:00 573.71 0.00 -- 66.7 100.0
09/07/2020 21:00 573.72 0.00 -- 67.3 100.0
09/07/2020 20:00 573.72 0.00 -- 68.1 100.0
09/07/2020 19:00 573.71 0.00 -- 69.2 100.0
09/07/2020 18:00 573.70 0.00 -- 71.3 100.0
09/07/2020 17:00 573.74 0.00 -- 73.4 100.0
09/07/2020 16:00 573.71 0.00 -- 77.4 100.0
09/07/2020 15:00 573.70 0.00 -- 77.7 100.0
09/07/2020 14:00 573.71 0.00 -- 76.5 100.0
09/07/2020 13:00 573.73 0.00 -- 74.4 100.0
09/07/2020 12:00 573.70 0.00 -- 71.4 100.0
09/07/2020 11:00 573.72 0.00 -- 68.0 100.0
09/07/2020 10:00 573.74 0.00 -- 63.8 100.0
09/07/2020 09:00 573.74 0.00 -- 60.5 100.0
09/07/2020 08:00 573.74 0.00 -- 59.0 100.0
09/07/2020 07:00 573.72 0.00 -- 57.3 100.0
09/07/2020 06:00 573.73 0.00 -- 57.0 100.0
09/07/2020 05:00 573.72 0.00 -- 55.8 100.0
09/07/2020 04:00 573.72 0.00 -- 54.5 100.0
09/07/2020 03:00 573.73 0.00 -- 55.5 100.0
09/07/2020 02:00 573.73 0.00 -- 55.7 100.0
09/07/2020 01:00 573.72 0.00 -- 56.0 100.0
09/07/2020 00:00 573.74 0.00 0.00 57.2 100.0
09/06/2020 23:00 573.72 0.00 -- 59.2 100.0
09/06/2020 22:00 573.73 0.00 -- 59.3 100.0
09/06/2020 21:00 573.73 0.00 -- 59.1 100.0
09/06/2020 20:00 573.72 0.00 -- 62.8 100.0
09/06/2020 19:00 573.72 0.00 -- 68.0 100.0
09/06/2020 18:00 573.73 0.00 -- 72.4 100.0
09/06/2020 17:00 573.73 0.00 -- 73.5 100.0
09/06/2020 16:00 573.75 0.00 -- 72.8 100.0
09/06/2020 15:00 573.75 0.00 -- 71.7 100.0
09/06/2020 14:00 573.71 0.00 -- 70.5 100.0
09/06/2020 13:00 573.74 0.00 -- 69.2 100.0
09/06/2020 12:00 573.74 0.00 -- 67.3 100.0
09/06/2020 11:00 573.74 0.00 -- 64.6 100.0
09/06/2020 10:00 573.74 0.00 -- 61.5 100.0
09/06/2020 09:00 573.74 0.00 -- 60.1 100.0
09/06/2020 08:00 573.73 0.00 -- 58.8 100.0
09/06/2020 07:00 573.72 0.00 -- 58.2 100.0
09/06/2020 06:00 573.75 0.00 -- 57.2 100.0
09/06/2020 05:00 573.74 0.00 -- 56.9 100.0
09/06/2020 04:00 573.74 0.00 -- 58.0 100.0
09/06/2020 03:00 573.74 0.00 -- 59.8 100.0
09/06/2020 02:00 573.74 0.00 -- 61.0 100.0
09/06/2020 01:00 573.75 0.00 -- 60.3 100.0
09/06/2020 00:00 573.74 0.00 0.00 61.9 100.0
09/05/2020 23:00 573.75 0.00 -- 60.9 100.0
09/05/2020 22:00 573.74 0.00 -- 59.5 100.0
09/05/2020 21:00 573.73 0.00 -- 59.0 100.0
09/05/2020 20:00 573.74 0.00 -- 63.3 100.0
09/05/2020 19:00 573.74 0.00 -- 67.8 100.0
09/05/2020 18:00 573.75 0.00 -- 71.4 100.0
09/05/2020 17:00 573.77 0.00 -- 72.3 100.0
09/05/2020 16:00 573.75 0.00 -- 71.3 100.0
09/05/2020 15:00 573.76 0.00 -- 69.9 100.0
09/05/2020 14:00 573.76 0.00 -- 68.7 100.0
09/05/2020 13:00 573.75 0.00 -- 67.1 100.0
09/05/2020 12:00 573.76 0.00 -- 65.0 100.0
09/05/2020 11:00 573.74 0.00 -- 62.7 100.0
09/05/2020 10:00 573.75 0.00 -- 60.9 100.0
09/05/2020 09:00 573.75 0.00 -- 58.4 100.0
09/05/2020 08:00 573.75 0.00 -- 55.0 100.0
09/05/2020 07:00 573.75 0.00 -- 53.4 100.0
09/05/2020 06:00 573.75 0.00 -- 54.7 100.0
09/05/2020 05:00 573.75 0.00 -- 55.9 100.0
09/05/2020 04:00 573.76 0.00 -- 57.6 100.0
09/05/2020 03:00 573.75 0.00 -- 57.8 100.0
09/05/2020 02:00 573.76 0.00 -- 62.8 100.0
09/05/2020 01:00 573.76 0.00 -- 62.5 100.0
09/05/2020 00:00 573.76 0.00 0.00 64.0 100.0
09/04/2020 23:00 573.75 0.00 -- 58.7 100.0
09/04/2020 22:00 573.76 0.00 -- 60.3 100.0
09/04/2020 21:00 573.75 0.00 -- 62.7 100.0
09/04/2020 20:00 573.76 0.00 -- 65.3 100.0
09/04/2020 19:00 573.76 0.00 -- 71.7 100.0
09/04/2020 18:00 573.74 0.00 -- 74.7 100.0
09/04/2020 17:00 573.77 0.00 -- 76.0 95.0
09/04/2020 16:00 573.76 0.00 -- 75.8 83.0
09/04/2020 15:00 573.78 0.00 -- 75.2 71.0
09/04/2020 14:00 573.75 0.00 -- 74.9 61.0
09/04/2020 13:00 573.78 0.00 -- 74.4 53.0
09/04/2020 12:00 573.76 0.00 -- 72.7 51.0
09/04/2020 11:00 573.77 0.00 -- 70.9 49.0
09/04/2020 10:00 573.78 0.00 -- 68.3 48.0
09/04/2020 09:00 573.77 0.00 -- 60.3 48.0
09/04/2020 08:00 573.77 0.00 -- 58.1 47.0
09/04/2020 07:00 573.75 0.00 -- 58.1 48.0
09/04/2020 06:00 573.77 0.00 -- 58.4 47.0
09/04/2020 05:00 573.78 0.00 -- 59.5 48.0
09/04/2020 04:00 573.79 0.00 -- 60.8 48.0
09/04/2020 03:00 573.76 0.00 -- 61.5 47.0
09/04/2020 02:00 573.77 0.00 -- 62.8 46.0
09/04/2020 01:00 573.78 0.00 -- 62.5 47.0
09/04/2020 00:00 573.77 0.00 0.00 62.7 46.0
09/03/2020 23:00 573.77 0.00 -- 64.7 46.0
09/03/2020 22:00 573.78 0.00 -- 66.3 45.0
09/03/2020 21:00 573.77 0.00 -- 67.5 45.0
09/03/2020 20:00 573.77 0.00 -- 68.7 44.0
09/03/2020 19:00 573.78 0.00 -- 70.1 45.0
09/03/2020 18:00 573.77 0.00 -- 72.8 46.0
09/03/2020 17:00 573.77 0.00 -- 74.6 46.0
09/03/2020 16:00 573.78 0.00 -- 72.9 46.0
09/03/2020 15:00 573.78 0.00 -- 73.4 41.0
09/03/2020 14:00 573.78 0.00 -- 72.1 47.0
09/03/2020 13:00 573.78 0.00 -- 70.8 44.0
09/03/2020 12:00 573.79 0.00 -- 68.1 46.0
09/03/2020 11:00 573.79 0.00 -- 67.4 49.0
09/03/2020 10:00 573.78 0.00 -- 67.4 47.0
09/03/2020 09:00 573.77 0.00 -- 65.9 52.0
09/03/2020 08:00 573.79 0.00 -- 65.6 53.0
09/03/2020 07:00 573.78 0.00 -- 66.2 54.0
09/03/2020 06:00 573.75 0.00 -- 65.6 57.0
09/03/2020 05:00 573.77 0.00 -- 65.6 58.0
09/03/2020 04:00 573.77 0.00 -- 64.9 59.0
09/03/2020 03:00 573.77 0.00 -- 64.8 60.0
09/03/2020 02:00 573.79 0.00 -- 65.1 61.0
09/03/2020 01:00 573.77 0.00 -- 64.7 61.0
09/03/2020 00:00 573.80 0.00 0.00 63.4 59.0
09/02/2020 23:00 573.77 0.00 -- 63.1 61.0
09/02/2020 22:00 573.78 0.00 -- 62.7 60.0
09/02/2020 21:00 573.80 0.00 -- 62.8 58.0
09/02/2020 20:00 573.78 0.00 -- 63.0 57.0
09/02/2020 19:00 573.79 0.00 -- 63.7 52.0
09/02/2020 18:00 573.78 0.00 -- 64.5 47.0
09/02/2020 17:00 573.79 0.00 -- 66.1 40.0
09/02/2020 16:00 573.79 0.00 -- 67.0 34.0
09/02/2020 15:00 573.77 0.00 -- 66.6 28.0
09/02/2020 14:00 573.79 0.00 -- 64.9 100.0
09/02/2020 13:00 573.77 0.00 -- 63.7 100.0
09/02/2020 12:00 573.78 0.00 -- 63.0 100.0
09/02/2020 11:00 573.78 0.00 -- 61.8 100.0
09/02/2020 10:00 573.79 0.00 -- 61.0 100.0
09/02/2020 09:00 573.79 0.00 -- 59.6 100.0
09/02/2020 08:00 573.79 0.00 -- 58.0 100.0
09/02/2020 07:00 573.77 0.00 -- 57.4 100.0
09/02/2020 06:00 573.78 0.00 -- 57.3 100.0
09/02/2020 05:00 573.80 0.00 -- 57.5 100.0
09/02/2020 04:00 573.79 0.00 -- 58.1 100.0
09/02/2020 03:00 573.79 0.00 -- 59.2 100.0
09/02/2020 02:00 573.78 0.00 -- 60.2 100.0
09/02/2020 01:00 573.79 0.00 -- 60.2 100.0
09/02/2020 00:00 573.78 0.00 0.00 60.0 100.0
09/01/2020 23:00 573.79 0.00 -- 60.1 100.0
09/01/2020 22:00 573.78 0.00 -- 60.7 100.0
09/01/2020 21:00 573.79 0.00 -- 62.1 100.0
09/01/2020 20:00 573.78 0.00 -- 64.3 100.0
09/01/2020 19:00 573.79 0.00 -- 66.6 100.0
09/01/2020 18:00 573.79 0.00 -- 68.7 100.0
09/01/2020 17:00 573.79 0.00 -- 71.6 100.0
09/01/2020 16:00 573.80 0.00 -- 72.4 100.0
09/01/2020 15:00 573.80 0.00 -- 72.1 100.0
09/01/2020 14:00 573.79 0.00 -- 70.3 100.0
09/01/2020 13:00 573.78 0.00 -- 69.1 100.0
09/01/2020 12:00 573.80 0.00 -- 67.6 100.0
09/01/2020 11:00 573.80 0.00 -- 65.3 100.0
09/01/2020 10:00 573.79 0.00 -- 61.8 100.0
09/01/2020 09:00 573.80 0.00 -- 57.4 100.0
09/01/2020 08:00 573.81 0.00 -- 55.5 100.0
09/01/2020 07:00 573.81 0.00 -- 54.8 100.0
09/01/2020 06:00 573.80 0.00 -- 54.1 100.0
09/01/2020 05:00 573.80 0.00 -- 54.0 100.0
09/01/2020 04:00 573.79 0.00 -- 54.4 100.0
09/01/2020 03:00 573.80 0.00 -- 55.8 100.0
09/01/2020 02:00 573.80 0.00 -- 56.1 100.0
09/01/2020 01:00 573.81 0.00 -- 57.1 100.0
09/01/2020 00:00 573.80 0.00 0.00 57.7 100.0
08/31/2020 23:00 573.81 0.00 -- 59.4 100.0
08/31/2020 22:00 573.80 0.00 -- 60.1 100.0
08/31/2020 21:00 573.82 0.00 -- 60.3 100.0
08/31/2020 20:00 573.81 0.00 -- 62.8 100.0
08/31/2020 19:00 573.81 0.00 -- 65.3 100.0
08/31/2020 18:00 573.82 0.00 -- 66.9 100.0
08/31/2020 17:00 573.80 0.00 -- 70.5 100.0
08/31/2020 16:00 573.81 0.00 -- 71.0 100.0
08/31/2020 15:00 573.81 0.00 -- 70.0 100.0
08/31/2020 14:00 573.82 0.00 -- 66.1 100.0
08/31/2020 13:00 573.82 0.00 -- 66.8 100.0
08/31/2020 12:00 573.82 0.00 -- 65.0 100.0
08/31/2020 11:00 573.82 0.00 -- 62.9 100.0
08/31/2020 10:00 573.81 0.00 -- 60.1 100.0
08/31/2020 09:00 573.82 0.00 -- 57.1 100.0
08/31/2020 08:00 573.82 0.00 -- 52.1 100.0
08/31/2020 07:00 573.82 0.00 -- 51.5 100.0
08/31/2020 06:00 573.82 0.00 -- 52.0 100.0
08/31/2020 05:00 573.82 0.00 -- 51.6 100.0
08/31/2020 04:00 573.82 0.00 -- 53.1 100.0
08/31/2020 03:00 573.82 0.00 -- 53.9 100.0
08/31/2020 02:00 573.82 0.00 -- 54.7 100.0
08/31/2020 01:00 573.83 0.00 -- 57.7 100.0
08/31/2020 00:00 573.81 0.00 0.00 57.8 100.0
08/30/2020 23:00 573.81 0.00 -- 58.4 100.0
08/30/2020 22:00 573.81 0.00 -- 59.1 100.0
08/30/2020 21:00 573.82 0.00 -- 59.7 100.0
08/30/2020 20:00 573.82 0.00 -- 60.3 100.0
08/30/2020 19:00 573.82 0.00 -- 61.0 100.0
08/30/2020 18:00 573.82 0.00 -- 61.6 100.0
08/30/2020 17:00 573.83 0.00 -- 62.2 100.0
08/30/2020 16:00 573.83 0.00 -- 62.9 100.0
08/30/2020 15:00 573.83 0.00 -- 63.5 100.0
08/30/2020 14:00 573.91 0.00 -- 64.5 100.0
08/30/2020 13:00 573.78 0.00 -- 63.7 100.0
08/30/2020 12:00 573.83 0.00 -- 63.6 100.0
08/30/2020 11:00 573.87 0.00 -- 63.6 100.0
08/30/2020 10:00 573.83 0.00 -- 63.0 86.0
08/30/2020 09:00 573.86 0.00 -- 62.0 85.0
08/30/2020 08:00 573.83 0.00 -- 58.6 79.0
08/30/2020 07:00 573.84 0.00 -- 58.8 77.0
08/30/2020 06:00 573.83 0.00 -- 60.0 73.0
08/30/2020 05:00 573.85 0.00 -- 63.9 65.0
08/30/2020 04:00 573.85 0.00 -- 65.0 72.0
08/30/2020 03:00 573.86 0.00 -- 64.6 96.0
08/30/2020 02:00 573.85 0.00 -- 64.3 100.0
08/30/2020 01:00 573.87 0.00 -- 64.6 100.0
08/30/2020 00:00 573.88 0.00 0.00 62.6 100.0
08/29/2020 23:00 573.82 0.00 -- 60.8 100.0
08/29/2020 22:00 573.81 0.00 -- 60.6 100.0
08/29/2020 21:00 573.81 0.00 -- 60.2 100.0
08/29/2020 20:00 573.79 0.00 -- 60.6 100.0
08/29/2020 19:00 573.85 0.00 -- 60.3 100.0
08/29/2020 18:00 573.88 0.00 -- 59.3 100.0
08/29/2020 17:00 573.84 0.00 -- 58.8 100.0
08/29/2020 16:00 573.81 0.00 -- 58.7 100.0
08/29/2020 15:00 573.83 0.00 -- 57.6 100.0
08/29/2020 14:00 573.85 0.01 -- 57.3 100.0
08/29/2020 13:00 573.86 0.00 -- 56.3 100.0
08/29/2020 12:00 573.82 0.01 -- 56.4 100.0
08/29/2020 11:00 573.83 0.00 -- 57.1 100.0
08/29/2020 10:00 573.73 0.00 -- 57.8 100.0
08/29/2020 09:00 573.73 0.00 -- 60.0 100.0
08/29/2020 08:00 573.73 0.00 -- 59.2 100.0
08/29/2020 07:00 573.72 0.00 -- 57.9 100.0
08/29/2020 06:00 573.73 0.00 -- 58.3 100.0
08/29/2020 05:00 573.74 0.00 -- 57.7 100.0
08/29/2020 04:00 573.75 0.00 -- 56.6 100.0
08/29/2020 03:00 573.73 0.00 -- 56.4 100.0
08/29/2020 02:00 573.72 0.00 -- 57.3 100.0
08/29/2020 01:00 573.73 0.00 -- 58.5 100.0
08/29/2020 00:00 573.73 0.00 0.02 59.8 100.0
08/28/2020 23:00 573.74 0.00 -- 61.4 100.0
08/28/2020 22:00 573.74 0.00 -- 61.8 100.0
08/28/2020 21:00 573.74 0.00 -- 64.6 100.0
08/28/2020 20:00 573.73 0.00 -- 68.3 100.0
08/28/2020 19:00 573.75 0.00 -- 74.2 100.0
08/28/2020 18:00 573.75 0.00 -- 74.5 100.0
08/28/2020 17:00 573.74 0.00 -- 75.5 100.0
08/28/2020 16:00 573.75 0.00 -- 74.9 100.0
08/28/2020 15:00 573.75 0.00 -- 73.4 100.0
08/28/2020 14:00 573.75 0.00 -- 70.3 100.0
08/28/2020 13:00 573.75 0.00 -- 68.7 100.0
08/28/2020 12:00 573.75 0.00 -- 65.6 100.0
08/28/2020 11:00 573.75 0.00 -- 64.4 100.0
08/28/2020 10:00 573.74 0.00 -- 61.4 100.0
08/28/2020 09:00 573.74 0.00 -- 58.1 100.0
08/28/2020 08:00 573.74 0.00 -- 54.6 100.0
08/28/2020 07:00 573.76 0.00 -- 54.2 100.0
08/28/2020 06:00 573.76 0.00 -- 55.9 100.0
08/28/2020 05:00 573.77 0.00 -- 55.3 100.0
08/28/2020 04:00 573.77 0.00 -- 53.6 100.0
08/28/2020 03:00 573.76 0.00 -- 55.1 100.0
08/28/2020 02:00 573.75 0.00 -- 57.3 100.0
08/28/2020 01:00 573.75 0.00 -- 57.1 100.0
08/28/2020 00:00 573.74 0.00 0.00 58.8 100.0
08/27/2020 23:00 573.75 0.00 -- 59.0 100.0
08/27/2020 22:00 573.76 0.00 -- 59.0 100.0
08/27/2020 21:00 573.76 0.00 -- 61.4 100.0
08/27/2020 20:00 573.77 0.00 -- 62.7 100.0
08/27/2020 19:00 573.75 0.00 -- 62.9 100.0
08/27/2020 18:00 573.76 0.00 -- 64.8 100.0
08/27/2020 17:00 573.76 0.00 -- 65.0 100.0
08/27/2020 16:00 573.76 0.00 -- 64.7 100.0
08/27/2020 15:00 573.77 0.00 -- 62.7 100.0
08/27/2020 14:00 573.78 0.00 -- 60.6 100.0
08/27/2020 13:00 573.76 0.00 -- 60.9 100.0
08/27/2020 12:00 573.76 0.00 -- 60.3 100.0
08/27/2020 11:00 573.78 0.00 -- 58.7 100.0
08/27/2020 10:00 573.76 0.00 -- 57.3 100.0
08/27/2020 09:00 573.75 0.00 -- 56.0 100.0
08/27/2020 08:00 573.77 0.00 -- 54.5 100.0
08/27/2020 07:00 573.77 0.00 -- 55.3 100.0
08/27/2020 06:00 573.78 0.00 -- 52.5 100.0
08/27/2020 05:00 573.77 0.00 -- 52.0 100.0
08/27/2020 04:00 573.77 0.00 -- 51.2 100.0
08/27/2020 03:00 573.78 0.00 -- 54.0 100.0
08/27/2020 02:00 573.78 0.00 -- 54.2 100.0
08/27/2020 01:00 573.78 0.00 -- 58.1 100.0
08/27/2020 00:00 573.78 0.00 0.00 59.2 100.0
08/26/2020 23:00 573.79 0.00 -- 59.0 100.0
08/26/2020 22:00 573.80 0.00 -- 58.9 100.0
08/26/2020 21:00 573.78 0.00 -- 63.0 100.0
08/26/2020 20:00 573.78 0.00 -- 64.9 100.0
08/26/2020 19:00 573.81 0.00 -- 66.2 100.0
08/26/2020 18:00 573.80 0.00 -- 66.6 100.0
08/26/2020 17:00 573.78 0.00 -- 67.1 100.0
08/26/2020 16:00 573.84 0.00 -- 67.3 100.0
08/26/2020 15:00 573.82 0.00 -- 66.4 100.0
08/26/2020 14:00 573.83 0.00 -- 64.4 100.0
08/26/2020 13:00 573.86 0.00 -- 62.4 100.0
08/26/2020 12:00 573.85 0.00 -- 60.8 100.0
08/26/2020 11:00 573.84 0.00 -- 60.2 100.0
08/26/2020 10:00 573.78 0.00 -- 59.1 100.0
08/26/2020 09:00 573.81 0.00 -- 58.6 100.0
08/26/2020 08:00 573.84 0.00 -- 58.2 100.0
08/26/2020 07:00 573.85 0.00 -- 59.2 100.0
08/26/2020 06:00 573.82 0.00 -- 58.4 100.0
08/26/2020 05:00 573.83 0.00 -- 58.3 100.0
08/26/2020 04:00 573.84 0.00 -- 57.0 100.0
08/26/2020 03:00 573.83 0.00 -- 58.4 100.0
08/26/2020 02:00 573.83 0.00 -- 64.1 100.0
08/26/2020 01:00 573.83 0.00 -- 65.0 100.0
08/26/2020 00:00 573.84 0.00 0.00 60.0 100.0
08/25/2020 23:00 573.84 0.00 -- 60.0 100.0
08/25/2020 22:00 573.85 0.00 -- 62.6 100.0
08/25/2020 21:00 573.83 0.00 -- 69.1 100.0
08/25/2020 20:00 573.84 0.00 -- 69.0 100.0
08/25/2020 19:00 573.86 0.00 -- 67.7 100.0
08/25/2020 18:00 573.81 0.00 -- 66.6 100.0
08/25/2020 17:00 573.85 0.00 -- 68.3 100.0
08/25/2020 16:00 573.82 0.00 -- 83.6 100.0
08/25/2020 15:00 573.82 0.00 -- 81.9 100.0
08/25/2020 14:00 573.80 0.00 -- 80.4 100.0
08/25/2020 13:00 573.80 0.00 -- 77.6 100.0
08/25/2020 12:00 573.78 0.00 -- 77.0 100.0
08/25/2020 11:00 573.79 0.00 -- 75.5 100.0
08/25/2020 10:00 573.82 0.00 -- 70.7 100.0
08/25/2020 09:00 573.81 0.00 -- 67.7 100.0
08/25/2020 08:00 573.82 0.00 -- 65.8 100.0
08/25/2020 07:00 573.81 0.00 -- 65.3 100.0
08/25/2020 06:00 573.82 0.00 -- 66.0 100.0
08/25/2020 05:00 573.81 0.00 -- 66.5 100.0
08/25/2020 04:00 573.81 0.00 -- 67.1 100.0
08/25/2020 03:00 573.81 0.00 -- 66.6 100.0
08/25/2020 02:00 573.83 0.00 -- 67.5 100.0
08/25/2020 01:00 573.81 0.00 -- 67.9 100.0
08/25/2020 00:00 573.80 0.00 0.00 69.6 100.0
08/24/2020 23:00 573.81 0.00 -- 70.7 100.0
08/24/2020 22:00 573.83 0.00 -- 72.5 100.0
08/24/2020 21:00 573.82 0.00 -- 75.1 100.0
08/24/2020 20:00 573.80 0.00 -- 77.5 100.0
08/24/2020 19:00 573.82 0.00 -- 79.2 100.0
08/24/2020 18:00 573.82 0.00 -- 83.0 100.0
08/24/2020 17:00 573.83 0.00 -- 86.6 100.0
08/24/2020 16:00 573.82 0.00 -- 85.7 100.0
08/24/2020 15:00 573.83 0.00 -- 84.3 88.0
08/24/2020 14:00 573.83 0.00 -- 83.1 70.0
08/24/2020 13:00 573.83 0.00 -- 80.2 62.0
08/24/2020 12:00 573.83 0.00 -- 77.4 61.0
08/24/2020 11:00 573.82 0.00 -- 75.3 66.0
08/24/2020 10:00 573.83 0.00 -- 71.7 66.0
08/24/2020 09:00 573.83 0.00 -- 67.3 66.0
08/24/2020 08:00 573.82 0.00 -- 65.0 64.0
08/24/2020 07:00 573.83 0.00 -- 64.5 64.0
08/24/2020 06:00 573.83 0.00 -- 65.0 64.0
08/24/2020 05:00 573.84 0.00 -- 65.5 64.0
08/24/2020 04:00 573.83 0.00 -- 66.4 63.0
08/24/2020 03:00 573.83 0.00 -- 66.4 61.0
08/24/2020 02:00 573.82 0.00 -- 66.7 61.0
08/24/2020 01:00 573.82 0.00 -- 68.3 60.0
08/24/2020 00:00 573.84 0.00 0.00 69.6 60.0
08/23/2020 23:00 573.86 0.00 -- 68.6 57.0
08/23/2020 22:00 573.84 0.00 -- 69.2 57.0
08/23/2020 21:00 573.83 0.00 -- 71.2 56.0
08/23/2020 20:00 573.83 0.00 -- 73.3 54.0
08/23/2020 19:00 573.83 0.00 -- 75.0 54.0
08/23/2020 18:00 573.83 0.00 -- 76.6 53.0
08/23/2020 17:00 573.83 0.00 -- 78.8 51.0
08/23/2020 16:00 573.83 0.00 -- 83.0 51.0
08/23/2020 15:00 573.83 0.00 -- 79.0 59.0
08/23/2020 14:00 573.84 0.00 -- 78.8 64.0
08/23/2020 13:00 573.85 0.00 -- 78.4 78.0
08/23/2020 12:00 573.85 0.00 -- 75.1 76.0
08/23/2020 11:00 573.85 0.00 -- 71.7 92.0
08/23/2020 10:00 573.85 0.00 -- 66.5 98.0
08/23/2020 09:00 573.85 0.00 -- 64.1 97.0
08/23/2020 08:00 573.86 0.00 -- 63.9 93.0
08/23/2020 07:00 573.85 0.00 -- 64.0 95.0
08/23/2020 06:00 573.85 0.00 -- 64.3 100.0
08/23/2020 05:00 573.84 0.00 -- 63.6 100.0
08/23/2020 04:00 573.85 0.00 -- 63.8 100.0
08/23/2020 03:00 573.85 0.00 -- 63.4 100.0
08/23/2020 02:00 573.86 0.00 -- 61.7 100.0
08/23/2020 01:00 573.84 0.00 -- 62.4 100.0
08/23/2020 00:00 573.85 0.00 0.00 63.0 100.0
08/22/2020 23:00 573.86 0.00 -- 63.9 100.0
08/22/2020 22:00 573.85 0.00 -- 65.2 100.0
08/22/2020 21:00 573.85 0.00 -- 67.2 100.0
08/22/2020 20:00 573.85 0.00 -- 68.4 100.0
08/22/2020 19:00 573.86 0.00 -- 69.2 100.0
08/22/2020 18:00 573.85 0.00 -- 70.1 100.0
08/22/2020 17:00 573.85 0.00 -- 70.0 100.0
08/22/2020 16:00 573.81 0.00 -- 69.2 100.0
08/22/2020 15:00 573.84 0.00 -- 70.9 100.0
08/22/2020 14:00 573.82 0.00 -- 69.4 100.0
08/22/2020 13:00 573.81 0.00 -- 74.5 100.0
08/22/2020 12:00 573.82 0.00 -- 71.9 100.0
08/22/2020 11:00 573.81 0.00 -- 70.8 100.0
08/22/2020 10:00 573.82 0.00 -- 66.6 100.0
08/22/2020 09:00 573.82 0.00 -- 64.9 100.0
08/22/2020 08:00 573.82 0.00 -- 63.6 100.0
08/22/2020 07:00 573.81 0.00 -- 63.0 100.0
08/22/2020 06:00 573.82 0.00 -- 62.3 100.0
08/22/2020 05:00 573.82 0.00 -- 62.2 100.0
08/22/2020 04:00 573.83 0.00 -- 63.8 100.0
08/22/2020 03:00 573.82 0.00 -- 64.0 100.0
08/22/2020 02:00 573.82 0.00 -- 63.9 100.0
08/22/2020 01:00 573.84 0.00 -- 63.9 100.0
08/22/2020 00:00 573.83 0.00 0.00 63.7 100.0
08/21/2020 23:00 573.83 0.00 -- 64.0 100.0
08/21/2020 22:00 573.83 0.00 -- 64.6 100.0
08/21/2020 21:00 573.84 0.00 -- 66.7 100.0
08/21/2020 20:00 573.83 0.00 -- 69.6 100.0
08/21/2020 19:00 573.82 0.00 -- 69.7 100.0
08/21/2020 18:00 573.78 0.00 -- 67.7 100.0
08/21/2020 17:00 573.80 0.00 -- 81.3 100.0
08/21/2020 16:00 573.82 0.00 -- 83.5 100.0
08/21/2020 15:00 573.80 0.00 -- 81.5 100.0
08/21/2020 14:00 573.80 0.00 -- 80.1 100.0
08/21/2020 13:00 573.81 0.00 -- 77.6 100.0
08/21/2020 12:00 573.80 0.00 -- 75.0 100.0
08/21/2020 11:00 573.81 0.00 -- 71.2 100.0
08/21/2020 10:00 573.83 0.00 -- 66.2 100.0
08/21/2020 09:00 573.83 0.00 -- 61.0 100.0
08/21/2020 08:00 573.83 0.00 -- 59.0 100.0
08/21/2020 07:00 573.81 0.00 -- 59.8 100.0
08/21/2020 06:00 573.84 0.00 -- 58.1 100.0
08/21/2020 05:00 573.82 0.00 -- 57.4 100.0
08/21/2020 04:00 573.81 0.00 -- 56.7 100.0
08/21/2020 03:00 573.82 0.00 -- 55.7 100.0
08/21/2020 02:00 573.82 0.00 -- 56.2 100.0
08/21/2020 01:00 573.82 0.00 -- 56.6 100.0
08/21/2020 00:00 573.81 0.00 0.00 57.1 100.0
08/20/2020 23:00 573.82 0.00 -- 58.4 100.0
08/20/2020 22:00 573.83 0.00 -- 60.1 100.0
08/20/2020 21:00 573.83 0.00 -- 63.3 100.0
08/20/2020 20:00 573.83 0.00 -- 68.7 100.0
08/20/2020 19:00 573.82 0.00 -- 72.5 100.0
08/20/2020 18:00 573.83 0.00 -- 72.6 100.0
08/20/2020 17:00 573.84 0.00 -- 73.1 100.0
08/20/2020 16:00 573.84 0.00 -- 72.1 100.0
08/20/2020 15:00 573.84 0.00 -- 71.3 100.0
08/20/2020 14:00 573.85 0.00 -- 69.6 100.0
08/20/2020 13:00 573.82 0.00 -- 68.1 100.0
08/20/2020 12:00 573.82 0.00 -- 66.1 100.0
08/20/2020 11:00 573.84 0.00 -- 64.4 100.0
08/20/2020 10:00 573.83 0.00 -- 62.7 100.0
08/20/2020 09:00 573.85 0.00 -- 60.5 100.0
08/20/2020 08:00 573.83 0.00 -- 56.1 100.0
08/20/2020 07:00 573.84 0.00 -- 53.4 100.0
08/20/2020 06:00 573.85 0.00 -- 53.5 100.0
08/20/2020 05:00 573.83 0.00 -- 54.4 100.0
08/20/2020 04:00 573.85 0.00 -- 54.0 100.0
08/20/2020 03:00 573.84 0.00 -- 53.9 100.0
08/20/2020 02:00 573.85 0.00 -- 55.1 100.0
08/20/2020 01:00 573.84 0.00 -- 54.7 100.0
08/20/2020 00:00 573.84 0.00 0.00 56.0 100.0
08/19/2020 23:00 573.84 0.00 -- 57.3 100.0
08/19/2020 22:00 573.85 0.00 -- 59.4 100.0
08/19/2020 21:00 573.84 0.00 -- 62.4 100.0
08/19/2020 20:00 573.84 0.00 -- 65.1 100.0
08/19/2020 19:00 573.84 0.00 -- 69.2 100.0
08/19/2020 18:00 573.84 0.00 -- 68.3 100.0
08/19/2020 17:00 573.87 0.00 -- 64.1 100.0
08/19/2020 16:00 573.84 0.00 -- 72.0 100.0
08/19/2020 15:00 573.86 0.00 -- 73.4 100.0
08/19/2020 14:00 573.87 0.00 -- 71.2 100.0
08/19/2020 13:00 573.87 0.00 -- 71.6 100.0
08/19/2020 12:00 573.85 0.00 -- 70.3 100.0
08/19/2020 11:00 573.85 0.00 -- 68.0 100.0
08/19/2020 10:00 573.85 0.00 -- 63.8 100.0
08/19/2020 09:00 573.86 0.00 -- 61.4 100.0
08/19/2020 08:00 573.84 0.00 -- 58.6 100.0
08/19/2020 07:00 573.85 0.00 -- 57.5 100.0
08/19/2020 06:00 573.85 0.00 -- 57.9 100.0
08/19/2020 05:00 573.85 0.00 -- 58.7 100.0
08/19/2020 04:00 573.86 0.00 -- 59.5 100.0
08/19/2020 03:00 573.85 0.00 -- 60.5 100.0
08/19/2020 02:00 573.86 0.00 -- 61.3 100.0
08/19/2020 01:00 573.86 0.00 -- 63.2 100.0
08/19/2020 00:00 573.87 0.00 0.00 62.2 100.0
08/18/2020 23:00 573.85 0.00 -- 63.9 100.0
08/18/2020 22:00 573.85 0.00 -- 66.0 100.0
08/18/2020 21:00 573.86 0.00 -- 69.9 100.0
08/18/2020 20:00 573.85 0.00 -- 73.7 100.0
08/18/2020 19:00 573.86 0.00 -- 75.8 100.0
08/18/2020 18:00 573.86 0.00 -- 76.7 100.0
08/18/2020 17:00 573.86 0.00 -- 78.6 100.0
08/18/2020 16:00 573.86 0.00 -- 79.3 100.0
08/18/2020 15:00 573.85 0.00 -- 77.4 100.0
08/18/2020 14:00 573.87 0.00 -- 75.8 100.0
08/18/2020 13:00 573.85 0.00 -- 73.5 100.0
08/18/2020 12:00 573.87 0.00 -- 71.9 100.0
08/18/2020 11:00 573.89 0.00 -- 69.5 100.0
08/18/2020 10:00 573.88 0.00 -- 67.0 100.0
08/18/2020 09:00 573.87 0.00 -- 63.7 100.0
08/18/2020 08:00 573.89 0.00 -- 61.8 100.0
08/18/2020 07:00 573.87 0.00 -- 61.6 100.0
08/18/2020 06:00 573.85 0.00 -- 61.3 100.0
08/18/2020 05:00 573.86 0.00 -- 61.4 100.0
08/18/2020 04:00 573.88 0.00 -- 62.1 100.0
08/18/2020 03:00 573.86 0.00 -- 62.3 100.0
08/18/2020 02:00 573.88 0.00 -- 62.8 100.0
08/18/2020 01:00 573.87 0.00 -- 62.6 100.0
08/18/2020 00:00 573.89 0.00 0.00 63.3 100.0
08/17/2020 23:00 573.86 0.00 -- 64.5 100.0
08/17/2020 22:00 573.85 0.00 -- 65.3 100.0
08/17/2020 21:00 573.87 0.00 -- 66.7 100.0
08/17/2020 20:00 573.89 0.00 -- 69.2 100.0
08/17/2020 19:00 573.88 0.00 -- 71.8 100.0
08/17/2020 18:00 573.87 0.00 -- 73.8 100.0
08/17/2020 17:00 573.88 0.00 -- 77.0 100.0
08/17/2020 16:00 573.88 0.00 -- 77.4 100.0
08/17/2020 15:00 573.88 0.00 -- 75.2 100.0
08/17/2020 14:00 573.88 0.00 -- 72.9 100.0
08/17/2020 13:00 573.89 0.00 -- 70.2 100.0
08/17/2020 12:00 573.89 0.00 -- 67.8 100.0
08/17/2020 11:00 573.87 0.00 -- 65.6 100.0
08/17/2020 10:00 573.88 0.00 -- 62.7 100.0
08/17/2020 09:00 573.89 0.00 -- 61.4 100.0
08/17/2020 08:00 573.89 0.00 -- 60.0 100.0
08/17/2020 07:00 573.89 0.00 -- 58.6 100.0
08/17/2020 06:00 573.89 0.00 -- 60.3 100.0
08/17/2020 05:00 573.89 0.00 -- 61.3 100.0
08/17/2020 04:00 573.89 0.00 -- 61.6 100.0
08/17/2020 03:00 573.89 0.00 -- 61.8 100.0
08/17/2020 02:00 573.89 0.00 -- 61.9 100.0
08/17/2020 01:00 573.88 0.00 -- 61.9 100.0
08/17/2020 00:00 573.88 0.00 0.00 62.4 100.0
08/16/2020 23:00 573.89 0.00 -- 62.6 100.0
08/16/2020 22:00 573.90 0.00 -- 63.1 100.0
08/16/2020 21:00 573.89 0.00 -- 64.4 100.0
08/16/2020 20:00 573.89 0.00 -- 65.5 100.0
08/16/2020 19:00 573.88 0.00 -- 66.6 100.0
08/16/2020 18:00 573.89 0.00 -- 67.3 100.0
08/16/2020 17:00 573.89 0.00 -- 69.2 100.0
08/16/2020 16:00 573.90 0.00 -- 68.7 100.0
08/16/2020 15:00 573.88 0.00 -- 68.5 100.0
08/16/2020 14:00 573.90 0.00 -- 68.1 100.0
08/16/2020 13:00 573.90 0.00 -- 66.0 100.0
08/16/2020 12:00 573.89 0.00 -- 66.0 100.0
08/16/2020 11:00 573.90 0.00 -- 64.8 100.0
08/16/2020 10:00 573.90 0.00 -- 63.3 100.0
08/16/2020 09:00 573.90 0.00 -- 62.4 100.0
08/16/2020 08:00 573.90 0.00 -- 60.9 100.0
08/16/2020 07:00 573.90 0.00 -- 60.1 100.0
08/16/2020 06:00 573.90 0.00 -- 60.0 100.0
08/16/2020 05:00 573.91 0.00 -- 58.1 100.0
08/16/2020 04:00 573.90 0.00 -- 59.2 100.0
08/16/2020 03:00 573.90 0.00 -- 59.6 100.0
08/16/2020 02:00 573.89 0.00 -- 59.5 100.0
08/16/2020 01:00 573.90 0.00 -- 59.7 100.0
08/16/2020 00:00 573.91 0.00 0.00 60.3 100.0
08/15/2020 23:00 573.90 0.00 -- 62.4 100.0
08/15/2020 22:00 573.91 0.00 -- 64.3 100.0
08/15/2020 21:00 573.90 0.00 -- 67.5 100.0
08/15/2020 20:00 573.91 0.00 -- 69.6 100.0
08/15/2020 19:00 573.90 0.00 -- 71.0 100.0
08/15/2020 18:00 573.90 0.00 -- 71.5 100.0
08/15/2020 17:00 573.90 0.00 -- 70.4 100.0
08/15/2020 16:00 573.91 0.00 -- 69.5 100.0
08/15/2020 15:00 573.91 0.00 -- 67.6 100.0
08/15/2020 14:00 573.91 0.00 -- 67.3 100.0
08/15/2020 13:00 573.90 0.00 -- 65.9 100.0
08/15/2020 12:00 573.91 0.00 -- 65.4 100.0
08/15/2020 11:00 573.91 0.00 -- 64.4 100.0
08/15/2020 10:00 573.91 0.00 -- 64.3 100.0
08/15/2020 09:00 573.92 0.00 -- 65.3 100.0
08/15/2020 08:00 573.92 0.00 -- 65.2 100.0
08/15/2020 07:00 573.92 0.00 -- 64.6 100.0
08/15/2020 06:00 573.91 0.00 -- 63.1 100.0
08/15/2020 05:00 573.90 0.00 -- 63.2 100.0
08/15/2020 04:00 573.90 0.00 -- 63.3 100.0
08/15/2020 03:00 573.90 0.00 -- 62.6 100.0
08/15/2020 02:00 573.91 0.00 -- 62.9 100.0
08/15/2020 01:00 573.91 0.00 -- 64.0 100.0
08/15/2020 00:00 573.91 0.00 0.00 63.9 100.0
08/14/2020 23:00 573.92 0.00 -- 66.1 100.0
08/14/2020 22:00 573.91 0.00 -- 68.3 100.0
08/14/2020 21:00 573.92 0.00 -- 71.8 100.0
08/14/2020 20:00 573.91 0.00 -- 75.7 100.0
08/14/2020 19:00 573.91 0.00 -- 79.5 100.0
08/14/2020 18:00 573.92 0.00 -- 82.4 100.0
08/14/2020 17:00 573.92 0.00 -- 83.8 100.0
08/14/2020 16:00 573.93 0.00 -- 84.1 100.0
08/14/2020 15:00 573.93 0.00 -- 82.7 100.0
08/14/2020 14:00 573.92 0.00 -- 81.6 100.0
08/14/2020 13:00 573.92 0.00 -- 79.8 100.0
08/14/2020 12:00 573.92 0.00 -- 77.2 100.0
08/14/2020 11:00 573.92 0.00 -- 75.6 100.0
08/14/2020 10:00 573.93 0.00 -- 72.0 100.0
08/14/2020 09:00 573.93 0.00 -- 68.0 100.0
08/14/2020 08:00 573.92 0.00 -- 65.2 100.0
08/14/2020 07:00 573.93 0.00 -- 64.4 100.0
08/14/2020 06:00 573.93 0.00 -- 64.8 100.0
08/14/2020 05:00 573.92 0.00 -- 65.2 100.0
08/14/2020 04:00 573.92 0.00 -- 65.6 100.0
08/14/2020 03:00 573.92 0.00 -- 66.1 100.0
08/14/2020 02:00 573.93 0.00 -- 66.5 100.0
08/14/2020 01:00 573.92 0.00 -- 67.7 100.0
08/14/2020 00:00 573.92 0.00 0.00 67.5 100.0
08/13/2020 23:00 573.93 0.00 -- 68.7 100.0
08/13/2020 22:00 573.92 0.00 -- 71.1 100.0
08/13/2020 21:00 573.92 0.00 -- 73.9 100.0
08/13/2020 20:00 573.93 0.00 -- 78.1 100.0
08/13/2020 19:00 573.92 0.00 -- 78.9 100.0
08/13/2020 18:00 573.92 0.00 -- 81.5 100.0
08/13/2020 17:00 573.93 0.00 -- 85.2 100.0
08/13/2020 16:00 573.92 0.00 -- 83.3 100.0
08/13/2020 15:00 573.93 0.00 -- 82.3 100.0
08/13/2020 14:00 573.92 0.00 -- 81.8 100.0
08/13/2020 13:00 573.93 0.00 -- 82.6 100.0
08/13/2020 12:00 573.94 0.00 -- 80.5 100.0
08/13/2020 11:00 573.93 0.00 -- 77.8 100.0
08/13/2020 10:00 573.94 0.00 -- 73.0 100.0
08/13/2020 09:00 573.93 0.00 -- 70.2 100.0
08/13/2020 08:00 573.94 0.00 -- 68.0 100.0
08/13/2020 07:00 573.93 0.00 -- 63.0 100.0
08/13/2020 06:00 573.93 0.00 -- 63.3 100.0
08/13/2020 05:00 573.93 0.00 -- 63.7 100.0
08/13/2020 04:00 573.93 0.00 -- 65.3 100.0
08/13/2020 03:00 573.93 0.00 -- 66.2 100.0
08/13/2020 02:00 573.94 0.00 -- 67.9 100.0
08/13/2020 01:00 573.94 0.00 -- 69.0 100.0
08/13/2020 00:00 573.94 0.00 0.00 71.0 100.0
08/12/2020 23:00 573.94 0.00 -- 72.2 100.0
08/12/2020 22:00 573.93 0.00 -- 74.4 100.0
08/12/2020 21:00 573.93 0.00 -- 77.5 100.0
08/12/2020 20:00 573.94 0.00 -- 80.8 100.0
08/12/2020 19:00 573.94 0.00 -- 85.0 100.0
08/12/2020 18:00 573.95 0.00 -- 86.2 100.0
08/12/2020 17:00 573.93 0.00 -- 87.6 100.0
08/12/2020 16:00 573.94 0.00 -- 85.3 100.0
08/12/2020 15:00 573.94 0.00 -- 85.1 100.0
08/12/2020 14:00 573.94 0.00 -- 83.8 100.0
08/12/2020 13:00 573.94 0.00 -- 81.8 100.0
08/12/2020 12:00 573.94 0.00 -- 80.7 100.0
08/12/2020 11:00 573.94 0.00 -- 78.4 100.0
08/12/2020 10:00 573.96 0.00 -- 76.6 100.0
08/12/2020 09:00 573.95 0.00 -- 75.7 100.0
08/12/2020 08:00 573.96 0.00 -- 75.0 100.0
08/12/2020 07:00 573.93 0.00 -- 72.6 100.0
08/12/2020 06:00 573.94 0.00 -- 75.1 100.0
08/12/2020 05:00 573.96 0.00 -- 76.0 100.0
08/12/2020 04:00 573.94 0.00 -- 76.4 100.0
08/12/2020 03:00 573.94 0.00 -- 76.9 100.0
08/12/2020 02:00 573.94 0.00 -- 76.8 100.0
08/12/2020 01:00 573.95 0.00 -- 76.5 100.0
08/12/2020 00:00 573.94 0.00 0.00 75.8 100.0
08/11/2020 23:00 573.95 0.00 -- 77.4 100.0
08/11/2020 22:00 573.95 0.00 -- 79.4 100.0
08/11/2020 21:00 573.94 0.00 -- 82.2 100.0
08/11/2020 20:00 573.95 0.00 -- 85.8 100.0
08/11/2020 19:00 573.93 0.00 -- 88.2 100.0
08/11/2020 18:00 573.95 0.00 -- 90.6 100.0
08/11/2020 17:00 573.94 0.00 -- 92.0 100.0
08/11/2020 16:00 573.93 0.00 -- 91.6 100.0
08/11/2020 15:00 573.96 0.00 -- 90.9 100.0
08/11/2020 14:00 573.95 0.00 -- 88.9 100.0
08/11/2020 13:00 573.95 0.00 -- 87.7 100.0
08/11/2020 12:00 573.95 0.00 -- 84.8 100.0
08/11/2020 11:00 573.95 0.00 -- 81.8 100.0
08/11/2020 10:00 573.95 0.00 -- 77.6 100.0
08/11/2020 09:00 573.95 0.00 -- 74.1 100.0
08/11/2020 08:00 573.96 0.00 -- 68.6 100.0
08/11/2020 07:00 573.96 0.00 -- 67.8 100.0
08/11/2020 06:00 573.96 0.00 -- 68.2 100.0
08/11/2020 05:00 573.96 0.00 -- 68.5 100.0
08/11/2020 04:00 573.96 0.00 -- 69.1 100.0
08/11/2020 03:00 573.95 0.00 -- 69.1 100.0
08/11/2020 02:00 573.95 0.00 -- 70.0 100.0
08/11/2020 01:00 573.95 0.00 -- 70.2 100.0
08/11/2020 00:00 573.96 0.00 0.00 71.2 100.0
08/10/2020 23:00 573.95 0.00 -- 71.7 100.0
08/10/2020 22:00 573.95 0.00 -- 72.2 100.0
08/10/2020 21:00 573.95 0.00 -- 75.3 100.0
08/10/2020 20:00 573.95 0.00 -- 78.7 100.0
08/10/2020 19:00 573.95 0.00 -- 81.4 100.0
08/10/2020 18:00 573.96 0.00 -- 85.4 100.0
08/10/2020 17:00 573.96 0.00 -- 86.0 100.0
08/10/2020 16:00 573.96 0.00 -- 85.1 100.0
08/10/2020 15:00 573.96 0.00 -- 84.2 100.0
08/10/2020 14:00 573.96 0.00 -- 82.7 100.0
08/10/2020 13:00 573.95 0.00 -- 80.4 100.0
08/10/2020 12:00 573.96 0.00 -- 80.0 100.0
08/10/2020 11:00 573.96 0.00 -- 78.6 100.0
08/10/2020 10:00 573.97 0.00 -- 75.0 100.0
08/10/2020 09:00 573.96 0.00 -- 70.7 100.0
08/10/2020 08:00 573.97 0.00 -- 68.3 100.0
08/10/2020 07:00 573.96 0.00 -- 67.7 100.0
08/10/2020 06:00 573.96 0.00 -- 66.7 100.0
08/10/2020 05:00 573.96 0.00 -- 66.6 100.0
08/10/2020 04:00 573.97 0.00 -- 68.2 100.0
08/10/2020 03:00 573.96 0.00 -- 69.9 100.0
08/10/2020 02:00 573.96 0.00 -- 71.4 100.0
08/10/2020 01:00 573.96 0.00 -- 70.3 100.0
08/10/2020 00:00 573.96 0.00 0.00 70.6 100.0
08/09/2020 23:00 573.96 0.00 -- 71.1 100.0
08/09/2020 22:00 573.96 0.00 -- 73.7 100.0
08/09/2020 21:00 573.96 0.00 -- 75.5 100.0
08/09/2020 20:00 573.96 0.00 -- 77.0 100.0
08/09/2020 19:00 573.97 0.00 -- 80.0 100.0
08/09/2020 18:00 573.96 0.00 -- 84.4 100.0
08/09/2020 17:00 573.97 0.00 -- 84.3 100.0
08/09/2020 16:00 573.97 0.00 -- 83.8 100.0
08/09/2020 15:00 573.97 0.00 -- 82.4 100.0
08/09/2020 14:00 573.97 0.00 -- 81.8 100.0
08/09/2020 13:00 573.96 0.00 -- 80.0 100.0
08/09/2020 12:00 573.97 0.00 -- 79.0 100.0
08/09/2020 11:00 573.97 0.00 -- 76.9 100.0
08/09/2020 10:00 573.97 0.00 -- 72.8 100.0
08/09/2020 09:00 573.98 0.00 -- 71.0 100.0
08/09/2020 08:00 573.96 0.00 -- 67.1 100.0
08/09/2020 07:00 573.98 0.00 -- 65.3 100.0
08/09/2020 06:00 573.97 0.00 -- 63.1 100.0
08/09/2020 05:00 573.98 0.00 -- 62.3 100.0
08/09/2020 04:00 573.97 0.00 -- 63.0 100.0
08/09/2020 03:00 573.96 0.00 -- 64.2 100.0
08/09/2020 02:00 573.96 0.00 -- 65.2 100.0
08/09/2020 01:00 573.97 0.00 -- 67.5 100.0
08/09/2020 00:00 573.97 0.00 0.00 69.4 100.0
08/08/2020 23:00 573.97 0.00 -- 71.2 100.0
08/08/2020 22:00 573.98 0.00 -- 71.5 100.0
08/08/2020 21:00 573.97 0.00 -- 71.3 100.0
08/08/2020 20:00 573.98 0.00 -- 76.3 100.0
08/08/2020 19:00 573.97 0.00 -- 79.1 100.0
08/08/2020 18:00 573.96 0.00 -- 81.1 100.0
08/08/2020 17:00 573.98 0.00 -- 80.4 100.0
08/08/2020 16:00 573.97 0.00 -- 78.9 100.0
08/08/2020 15:00 573.97 0.00 -- 78.5 100.0
08/08/2020 14:00 573.98 0.00 -- 76.3 100.0
08/08/2020 13:00 573.97 0.00 -- 75.1 100.0
08/08/2020 12:00 573.97 0.00 -- 70.1 100.0
08/08/2020 11:00 573.97 0.00 -- 67.8 100.0
08/08/2020 10:00 573.98 0.00 -- 67.5 100.0
08/08/2020 09:00 573.98 0.00 -- 68.1 100.0
08/08/2020 08:00 573.98 0.00 -- 62.9 100.0
08/08/2020 07:00 573.97 0.00 -- 62.1 100.0
08/08/2020 06:00 573.98 0.00 -- 62.2 100.0
08/08/2020 05:00 573.98 0.00 -- 62.2 100.0
08/08/2020 04:00 573.97 0.00 -- 62.7 100.0
08/08/2020 03:00 573.98 0.00 -- 62.6 100.0
08/08/2020 02:00 573.97 0.00 -- 63.9 100.0
08/08/2020 01:00 573.98 0.00 -- 64.2 100.0
08/08/2020 00:00 573.97 0.00 0.00 64.3 100.0
08/07/2020 23:00 573.97 0.00 -- 67.0 100.0
08/07/2020 22:00 573.98 0.00 -- 68.1 100.0
08/07/2020 21:00 573.98 0.00 -- 69.1 100.0
08/07/2020 20:00 573.97 0.00 -- 71.8 100.0
08/07/2020 19:00 573.97 0.00 -- 74.3 100.0
08/07/2020 18:00 573.98 0.00 -- 77.2 100.0
08/07/2020 17:00 573.97 0.00 -- 78.3 100.0
08/07/2020 16:00 573.98 0.00 -- 80.1 100.0
08/07/2020 15:00 573.98 0.00 -- 76.1 100.0
08/07/2020 14:00 573.99 0.00 -- 76.9 100.0
08/07/2020 13:00 573.99 0.00 -- 76.1 100.0
08/07/2020 12:00 573.98 0.00 -- 73.5 100.0
08/07/2020 11:00 573.98 0.00 -- 70.1 100.0
08/07/2020 10:00 573.99 0.00 -- 65.5 100.0
08/07/2020 09:00 573.99 0.00 -- 63.6 100.0
08/07/2020 08:00 573.99 0.00 -- 59.6 100.0
08/07/2020 07:00 573.98 0.00 -- 57.4 100.0
08/07/2020 06:00 573.99 0.00 -- 56.9 100.0
08/07/2020 05:00 573.98 0.00 -- 57.6 100.0
08/07/2020 04:00 573.98 0.00 -- 56.8 100.0
08/07/2020 03:00 573.99 0.00 -- 57.4 100.0
08/07/2020 02:00 573.99 0.00 -- 59.1 100.0
08/07/2020 01:00 573.99 0.00 -- 59.0 100.0
08/07/2020 00:00 573.99 0.00 0.00 59.9 100.0
08/06/2020 23:00 573.99 0.00 -- 61.2 100.0
08/06/2020 22:00 573.99 0.00 -- 63.1 100.0
08/06/2020 21:00 573.98 0.00 -- 66.3 100.0
08/06/2020 20:00 574.00 0.00 -- 70.6 100.0
08/06/2020 19:00 574.00 0.00 -- 75.1 100.0
08/06/2020 18:00 573.99 0.00 -- 76.5 100.0
08/06/2020 17:00 573.99 0.00 -- 76.0 100.0
08/06/2020 16:00 574.00 0.00 -- 74.7 100.0
08/06/2020 15:00 574.00 0.00 -- 72.9 100.0
08/06/2020 14:00 574.02 0.00 -- 72.4 100.0
08/06/2020 13:00 573.99 0.00 -- 71.2 100.0
08/06/2020 12:00 574.00 0.00 -- 70.5 100.0
08/06/2020 11:00 574.01 0.00 -- 69.5 100.0
08/06/2020 10:00 574.01 0.00 -- 68.6 100.0
08/06/2020 09:00 574.01 0.00 -- 65.9 100.0
08/06/2020 08:00 573.99 0.00 -- 59.9 100.0
08/06/2020 07:00 574.00 0.00 -- 58.3 100.0
08/06/2020 06:00 574.00 0.00 -- 59.5 100.0
08/06/2020 05:00 574.00 0.00 -- 60.0 100.0
08/06/2020 04:00 574.00 0.00 -- 61.1 100.0
08/06/2020 03:00 574.00 0.00 -- 62.9 100.0
08/06/2020 02:00 574.00 0.00 -- 63.9 100.0
08/06/2020 01:00 574.01 0.00 -- 65.2 100.0
08/06/2020 00:00 574.00 0.00 0.00 67.3 100.0
08/05/2020 23:00 574.00 0.00 -- 67.7 100.0
08/05/2020 22:00 574.01 0.00 -- 69.8 100.0
08/05/2020 21:00 574.00 0.00 -- 73.1 100.0
08/05/2020 20:00 574.02 0.00 -- 76.9 100.0
08/05/2020 19:00 574.01 0.00 -- 80.9 100.0
08/05/2020 18:00 574.01 0.00 -- 82.4 100.0
08/05/2020 17:00 574.03 0.00 -- 82.3 100.0
08/05/2020 16:00 574.00 0.00 -- 82.4 100.0
08/05/2020 15:00 573.99 0.00 -- 81.5 100.0
08/05/2020 14:00 573.99 0.00 -- 81.2 100.0
08/05/2020 13:00 574.02 0.00 -- 79.0 98.0
08/05/2020 12:00 574.01 0.00 -- 77.6 94.0
08/05/2020 11:00 574.01 0.00 -- 75.1 93.0
08/05/2020 10:00 574.00 0.00 -- 72.2 90.0
08/05/2020 09:00 574.02 0.00 -- 69.0 90.0
08/05/2020 08:00 574.02 0.00 -- 66.6 91.0
08/05/2020 07:00 574.01 0.00 -- 65.7 91.0
08/05/2020 06:00 574.01 0.00 -- 66.1 89.0
08/05/2020 05:00 574.01 0.00 -- 67.1 88.0
08/05/2020 04:00 574.01 0.00 -- 68.0 89.0
08/05/2020 03:00 574.04 0.00 -- 68.4 89.0
08/05/2020 02:00 574.02 0.00 -- 67.8 87.0
08/05/2020 01:00 574.03 0.00 -- 69.8 90.0
08/05/2020 00:00 574.08 0.00 0.00 69.4 92.0
08/04/2020 23:00 574.03 0.00 -- 68.9 97.0
08/04/2020 22:00 574.05 0.00 -- 71.0 99.0
08/04/2020 21:00 574.03 0.00 -- 72.9 100.0
08/04/2020 20:00 574.22 0.00 -- 73.3 100.0
08/04/2020 19:00 574.02 0.00 -- 73.0 100.0
08/04/2020 18:00 574.03 0.00 -- 71.7 100.0
08/04/2020 17:00 574.02 0.00 -- 70.6 100.0
08/04/2020 16:00 574.00 0.00 -- 71.2 100.0
08/04/2020 15:00 573.98 0.00 -- 71.9 100.0
08/04/2020 14:00 574.01 0.00 -- 72.9 100.0
08/04/2020 13:00 574.02 0.00 -- 73.3 100.0
08/04/2020 12:00 574.01 0.00 -- 72.2 100.0
08/04/2020 11:00 574.00 0.00 -- 70.9 100.0
08/04/2020 10:00 574.02 0.00 -- 70.8 100.0
08/04/2020 09:00 574.01 0.00 -- 68.8 100.0
08/04/2020 08:00 574.01 0.00 -- 67.5 100.0
08/04/2020 07:00 574.00 0.00 -- 67.0 100.0
08/04/2020 06:00 573.96 0.00 -- 67.0 100.0
08/04/2020 05:00 574.00 0.00 -- 66.6 100.0
08/04/2020 04:00 574.01 0.00 -- 65.9 100.0
08/04/2020 03:00 574.01 0.00 -- 66.4 100.0
08/04/2020 02:00 574.01 0.00 -- 67.3 100.0
08/04/2020 01:00 574.00 0.00 -- 67.3 100.0
08/04/2020 00:00 574.01 0.00 0.00 69.0 100.0
08/03/2020 23:00 574.01 0.00 -- 69.5 100.0
08/03/2020 22:00 574.01 0.00 -- 70.5 100.0
08/03/2020 21:00 574.01 0.00 -- 74.0 100.0
08/03/2020 20:00 574.01 0.00 -- 79.6 100.0
08/03/2020 19:00 574.02 0.00 -- 80.9 100.0
08/03/2020 18:00 574.06 0.00 -- 82.2 100.0
08/03/2020 17:00 574.04 0.00 -- 82.3 100.0
08/03/2020 16:00 574.01 0.00 -- 82.3 100.0
08/03/2020 15:00 574.00 0.00 -- 80.5 100.0
08/03/2020 14:00 574.05 0.00 -- 81.8 100.0
08/03/2020 13:00 574.04 0.00 -- 80.0 100.0
08/03/2020 12:00 574.04 0.00 -- 80.1 100.0
08/03/2020 11:00 574.00 0.00 -- 80.5 100.0
08/03/2020 10:00 574.03 0.00 -- 78.4 100.0
08/03/2020 09:00 574.01 0.00 -- 77.4 100.0
08/03/2020 08:00 574.03 0.00 -- 74.7 100.0
08/03/2020 07:00 574.04 0.00 -- 74.3 100.0
08/03/2020 06:00 574.02 0.00 -- 73.6 100.0
08/03/2020 05:00 574.04 0.00 -- 73.7 100.0
08/03/2020 04:00 574.05 0.00 -- 74.0 100.0
08/03/2020 03:00 574.03 0.00 -- 73.7 100.0
08/03/2020 02:00 574.02 0.00 -- 73.6 100.0
08/03/2020 01:00 574.00 0.00 -- 73.4 100.0
08/03/2020 00:00 574.04 0.00 0.00 73.2 100.0
08/02/2020 23:00 574.03 0.00 -- 73.2 100.0
08/02/2020 22:00 574.03 0.00 -- 73.9 100.0
08/02/2020 21:00 574.02 0.00 -- 74.2 100.0
08/02/2020 20:00 574.01 0.00 -- 75.2 100.0
08/02/2020 19:00 574.01 0.00 -- 76.9 100.0
08/02/2020 18:00 574.04 0.00 -- 76.7 100.0
08/02/2020 17:00 574.03 0.00 -- 77.6 100.0
08/02/2020 16:00 574.02 0.00 -- 77.2 100.0
08/02/2020 15:00 574.02 0.00 -- 75.9 100.0
08/02/2020 14:00 574.03 0.00 -- 79.4 100.0
08/02/2020 13:00 574.03 0.00 -- 79.6 100.0
08/02/2020 12:00 574.03 0.00 -- 77.3 100.0
08/02/2020 11:00 574.03 0.00 -- 76.7 100.0
08/02/2020 10:00 574.03 0.00 -- 72.2 100.0
08/02/2020 09:00 574.03 0.00 -- 70.1 100.0
08/02/2020 08:00 574.02 0.00 -- 67.2 100.0
08/02/2020 07:00 574.02 0.00 -- 65.4 100.0
08/02/2020 06:00 574.03 0.00 -- 64.8 100.0
08/02/2020 05:00 574.03 0.00 -- 65.3 100.0
08/02/2020 04:00 574.03 0.00 -- 65.4 100.0
08/02/2020 03:00 574.03 0.00 -- 66.8 100.0
08/02/2020 02:00 574.03 0.00 -- 69.7 100.0
08/02/2020 01:00 574.03 0.00 -- 71.0 100.0
08/02/2020 00:00 574.03 0.00 0.00 72.4 100.0
08/01/2020 23:00 574.03 0.00 -- 72.5 100.0
08/01/2020 22:00 574.04 0.00 -- 72.9 100.0
08/01/2020 21:00 574.03 0.00 -- 73.6 100.0
08/01/2020 20:00 574.04 0.00 -- 75.2 100.0
08/01/2020 19:00 574.03 0.00 -- 78.5 100.0
08/01/2020 18:00 574.04 0.00 -- 83.6 100.0
08/01/2020 17:00 574.04 0.00 -- 84.8 100.0
08/01/2020 16:00 574.04 0.00 -- 82.5 100.0
08/01/2020 15:00 574.05 0.00 -- 82.1 100.0
08/01/2020 14:00 574.04 0.00 -- 80.2 100.0
08/01/2020 13:00 574.04 0.00 -- 78.6 100.0
08/01/2020 12:00 574.05 0.00 -- 77.4 100.0
08/01/2020 11:00 574.04 0.00 -- 76.1 100.0
08/01/2020 10:00 574.05 0.00 -- 72.2 100.0
08/01/2020 09:00 574.04 0.00 -- 68.8 100.0
08/01/2020 08:00 574.05 0.00 -- 64.3 100.0
08/01/2020 07:00 574.05 0.00 -- 63.0 100.0
08/01/2020 06:00 574.04 0.00 -- 63.4 100.0
08/01/2020 05:00 574.04 0.00 -- 63.9 100.0
08/01/2020 04:00 574.05 0.00 -- 64.3 100.0
08/01/2020 03:00 574.05 0.00 -- 65.8 100.0
08/01/2020 02:00 574.05 0.00 -- 67.0 100.0
08/01/2020 01:00 574.04 0.00 -- 67.5 100.0
08/01/2020 00:00 574.05 0.00 0.00 70.1 100.0
07/31/2020 23:00 574.05 0.00 -- 70.6 100.0
07/31/2020 22:00 574.05 0.00 -- 71.9 100.0
07/31/2020 21:00 574.05 0.00 -- 72.8 100.0
07/31/2020 20:00 574.05 0.00 -- 74.9 100.0
07/31/2020 19:00 574.05 0.00 -- 77.6 100.0
07/31/2020 18:00 574.05 0.00 -- 82.7 100.0
07/31/2020 17:00 574.05 0.00 -- 82.7 100.0
07/31/2020 16:00 574.05 0.00 -- 80.8 100.0
07/31/2020 15:00 574.06 0.00 -- 80.8 100.0
07/31/2020 14:00 574.05 0.00 -- 79.6 100.0
07/31/2020 13:00 574.05 0.00 -- 78.2 100.0
07/31/2020 12:00 574.04 0.00 -- 76.1 100.0
07/31/2020 11:00 574.06 0.00 -- 73.5 100.0
07/31/2020 10:00 574.05 0.00 -- 70.1 100.0
07/31/2020 09:00 574.05 0.00 -- 68.1 100.0
07/31/2020 08:00 574.06 0.00 -- 66.6 100.0
07/31/2020 07:00 574.05 0.00 -- 65.2 100.0
07/31/2020 06:00 574.07 0.00 -- 65.5 100.0
07/31/2020 05:00 574.07 0.00 -- 66.6 100.0
07/31/2020 04:00 574.06 0.00 -- 66.3 100.0
07/31/2020 03:00 574.08 0.00 -- 67.0 100.0
07/31/2020 02:00 574.06 0.00 -- 65.8 100.0
07/31/2020 01:00 574.06 0.00 -- 67.4 100.0
07/31/2020 00:00 574.05 0.00 0.00 68.4 100.0
07/30/2020 23:00 574.06 0.00 -- 68.8 100.0
07/30/2020 22:00 574.06 0.00 -- 68.7 100.0
07/30/2020 21:00 574.07 0.00 -- 70.0 100.0
07/30/2020 20:00 574.06 0.00 -- 73.0 100.0
07/30/2020 19:00 574.07 0.00 -- 77.4 100.0
07/30/2020 18:00 574.08 0.00 -- 72.5 100.0
07/30/2020 17:00 574.04 0.00 -- 82.7 100.0
07/30/2020 16:00 574.06 0.00 -- 82.3 100.0
07/30/2020 15:00 574.05 0.00 -- 79.3 100.0
07/30/2020 14:00 574.06 0.00 -- 81.5 100.0
07/30/2020 13:00 574.06 0.00 -- 79.0 100.0
07/30/2020 12:00 574.06 0.00 -- 76.9 100.0
07/30/2020 11:00 574.06 0.00 -- 74.6 100.0
07/30/2020 10:00 574.06 0.00 -- 70.9 100.0
07/30/2020 09:00 574.07 0.00 -- 68.2 100.0
07/30/2020 08:00 574.07 0.00 -- 66.2 100.0
07/30/2020 07:00 574.06 0.00 -- 64.8 100.0
07/30/2020 06:00 574.07 0.00 -- 65.7 100.0
07/30/2020 05:00 574.07 0.00 -- 67.3 100.0
07/30/2020 04:00 574.04 0.00 -- 67.0 100.0
07/30/2020 03:00 574.07 0.00 -- 67.8 100.0
07/30/2020 02:00 574.05 0.00 -- 72.4 100.0
07/30/2020 01:00 574.07 0.00 -- 72.7 100.0
07/30/2020 00:00 574.05 0.00 0.00 72.6 100.0
07/29/2020 23:00 574.06 0.00 -- 73.5 100.0
07/29/2020 22:00 574.06 0.00 -- 73.5 100.0
07/29/2020 21:00 574.06 0.00 -- 75.3 100.0
07/29/2020 20:00 574.06 0.00 -- 78.2 100.0
07/29/2020 19:00 574.06 0.00 -- 80.9 100.0
07/29/2020 18:00 574.06 0.00 -- 85.1 100.0
07/29/2020 17:00 574.08 0.00 -- 84.9 100.0
07/29/2020 16:00 574.07 0.00 -- 86.2 100.0
07/29/2020 15:00 574.07 0.00 -- 84.1 100.0
07/29/2020 14:00 574.07 0.00 -- 81.9 100.0
07/29/2020 13:00 574.06 0.00 -- 81.5 100.0
07/29/2020 12:00 574.06 0.00 -- 79.1 100.0
07/29/2020 11:00 574.06 0.00 -- 77.0 100.0
07/29/2020 10:00 574.06 0.00 -- 74.2 100.0
07/29/2020 09:00 574.07 0.00 -- 72.1 100.0
07/29/2020 08:00 574.06 0.00 -- 68.1 100.0
07/29/2020 07:00 574.07 0.00 -- 67.1 100.0
07/29/2020 06:00 574.07 0.00 -- 70.7 100.0
07/29/2020 05:00 574.07 0.00 -- 67.4 100.0
07/29/2020 04:00 574.06 0.00 -- 69.6 100.0
07/29/2020 03:00 574.05 0.00 -- 68.7 100.0
07/29/2020 02:00 574.07 0.00 -- 68.9 100.0
07/29/2020 01:00 574.07 0.00 -- 69.9 100.0
07/29/2020 00:00 574.06 0.00 0.00 71.4 100.0
07/28/2020 23:00 574.07 0.00 -- 71.7 100.0
07/28/2020 22:00 574.08 0.00 -- 72.7 100.0
07/28/2020 21:00 574.06 0.00 -- 74.5 100.0
07/28/2020 20:00 574.05 0.00 -- 79.9 100.0
07/28/2020 19:00 574.06 0.00 -- 83.2 100.0
07/28/2020 18:00 574.06 0.00 -- 85.9 100.0
07/28/2020 17:00 574.07 0.00 -- 83.5 100.0
07/28/2020 16:00 574.06 0.00 -- 84.0 100.0
07/28/2020 15:00 574.07 0.00 -- 81.8 100.0
07/28/2020 14:00 574.07 0.00 -- 81.0 100.0
07/28/2020 13:00 574.07 0.00 -- 79.1 100.0
07/28/2020 12:00 574.07 0.00 -- 78.6 100.0
07/28/2020 11:00 574.07 0.00 -- 81.2 100.0
07/28/2020 10:00 574.08 0.00 -- 80.7 100.0
07/28/2020 09:00 574.07 0.00 -- 78.9 100.0
07/28/2020 08:00 574.07 0.00 -- 74.7 100.0
07/28/2020 07:00 574.05 0.00 -- 75.1 100.0
07/28/2020 06:00 574.08 0.00 -- 78.3 100.0
07/28/2020 05:00 574.08 0.00 -- 76.6 100.0
07/28/2020 04:00 574.06 0.00 -- 76.9 100.0
07/28/2020 03:00 574.05 0.00 -- 77.2 100.0
07/28/2020 02:00 574.06 0.00 -- 77.7 100.0
07/28/2020 01:00 574.05 0.00 -- 80.0 100.0
07/28/2020 00:00 574.06 0.00 0.00 81.7 100.0
07/27/2020 23:00 574.05 0.00 -- 79.9 100.0
07/27/2020 22:00 574.07 0.00 -- 80.4 100.0
07/27/2020 21:00 574.06 0.00 -- 81.8 100.0
07/27/2020 20:00 574.06 0.00 -- 84.1 100.0
07/27/2020 19:00 574.09 0.00 -- 86.2 100.0
07/27/2020 18:00 574.05 0.00 -- 91.2 100.0
07/27/2020 17:00 574.06 0.00 -- 91.1 100.0
07/27/2020 16:00 574.08 0.00 -- 90.1 100.0
07/27/2020 15:00 574.08 0.00 -- 88.9 100.0
07/27/2020 14:00 574.09 0.00 -- 86.8 100.0
07/27/2020 13:00 574.09 0.00 -- 84.7 100.0
07/27/2020 12:00 574.07 0.00 -- 81.8 100.0
07/27/2020 11:00 574.09 0.00 -- 79.8 100.0
07/27/2020 10:00 574.06 0.00 -- 78.0 100.0
07/27/2020 09:00 574.08 0.00 -- 77.1 100.0
07/27/2020 08:00 574.07 0.00 -- 75.7 100.0
07/27/2020 07:00 574.07 0.00 -- 77.1 100.0
07/27/2020 06:00 574.07 0.00 -- 76.8 100.0
07/27/2020 05:00 574.10 0.00 -- 74.9 100.0
07/27/2020 04:00 574.08 0.00 -- 76.4 100.0
07/27/2020 03:00 574.07 0.00 -- 74.0 100.0
07/27/2020 02:00 574.07 0.00 -- 75.9 100.0
07/27/2020 01:00 574.07 0.00 -- 78.1 100.0
07/27/2020 00:00 574.06 0.00 0.00 75.0 100.0
07/26/2020 23:00 574.08 0.00 -- 77.5 100.0
07/26/2020 22:00 574.09 0.00 -- 80.4 100.0
07/26/2020 21:00 574.09 0.00 -- 78.4 100.0
07/26/2020 20:00 574.07 0.00 -- 76.9 100.0
07/26/2020 19:00 574.09 0.00 -- 80.9 100.0
07/26/2020 18:00 574.10 0.00 -- 84.8 100.0
07/26/2020 17:00 574.09 0.00 -- 86.5 100.0
07/26/2020 16:00 574.07 0.00 -- 83.6 100.0
07/26/2020 15:00 574.08 0.00 -- 83.0 100.0
07/26/2020 14:00 574.08 0.00 -- 80.5 100.0
07/26/2020 13:00 574.13 0.00 -- 80.1 100.0
07/26/2020 12:00 574.12 0.00 -- 77.1 100.0
07/26/2020 11:00 574.09 0.00 -- 74.8 100.0
07/26/2020 10:00 574.08 0.00 -- 73.2 100.0
07/26/2020 09:00 574.08 0.00 -- 70.8 94.0
07/26/2020 08:00 574.10 0.00 -- 67.6 95.0
07/26/2020 07:00 574.10 0.00 -- 66.4 100.0
07/26/2020 06:00 574.09 0.00 -- 69.7 100.0
07/26/2020 05:00 574.09 0.00 -- 64.2 100.0
07/26/2020 04:00 574.09 0.00 -- 64.2 100.0
07/26/2020 03:00 574.09 0.00 -- 64.8 100.0
07/26/2020 02:00 574.10 0.00 -- 65.6 100.0
07/26/2020 01:00 574.10 0.00 -- 65.5 100.0
07/26/2020 00:00 574.08 0.00 0.00 66.3 100.0
07/25/2020 23:00 574.09 0.00 -- 67.0 100.0
07/25/2020 22:00 574.10 0.00 -- 68.7 100.0
07/25/2020 21:00 574.09 0.00 -- 71.9 100.0
07/25/2020 20:00 574.09 0.00 -- 74.5 100.0
07/25/2020 19:00 574.11 0.00 -- 78.4 100.0
07/25/2020 18:00 574.11 0.00 -- 80.2 100.0
07/25/2020 17:00 574.10 0.00 -- 83.8 100.0
07/25/2020 16:00 574.10 0.00 -- 83.0 100.0
07/25/2020 15:00 574.10 0.00 -- 82.4 100.0
07/25/2020 14:00 574.11 0.00 -- 81.6 100.0
07/25/2020 13:00 574.10 0.00 -- 80.5 100.0
07/25/2020 12:00 574.10 0.00 -- 78.1 100.0
07/25/2020 11:00 574.10 0.00 -- 75.5 100.0
07/25/2020 10:00 574.09 0.00 -- 71.5 100.0
07/25/2020 09:00 574.10 0.00 -- 69.7 100.0
07/25/2020 08:00 574.10 0.00 -- 68.0 97.0
07/25/2020 07:00 574.10 0.00 -- 67.2 94.0
07/25/2020 06:00 574.10 0.00 -- 68.2 89.0
07/25/2020 05:00 574.10 0.00 -- 67.6 80.0
07/25/2020 04:00 574.10 0.00 -- 65.6 82.0
07/25/2020 03:00 574.10 0.00 -- 65.0 87.0
07/25/2020 02:00 574.10 0.00 -- 65.7 93.0
07/25/2020 01:00 574.10 0.00 -- 66.9 100.0
07/25/2020 00:00 574.10 0.00 0.00 68.9 100.0
07/24/2020 23:00 574.09 0.00 -- 70.4 100.0
07/24/2020 22:00 574.10 0.00 -- 70.3 100.0
07/24/2020 21:00 574.10 0.00 -- 71.7 100.0
07/24/2020 20:00 574.09 0.00 -- 74.8 100.0
07/24/2020 19:00 574.10 0.00 -- 77.9 100.0
07/24/2020 18:00 574.11 0.00 -- 79.3 100.0
07/24/2020 17:00 574.10 0.00 -- 82.7 100.0
07/24/2020 16:00 574.11 0.00 -- 80.1 100.0
07/24/2020 15:00 574.10 0.00 -- 79.6 90.0
07/24/2020 14:00 574.11 0.00 -- 78.2 80.0
07/24/2020 13:00 574.11 0.00 -- 76.7 67.0
07/24/2020 12:00 574.11 0.00 -- 74.9 64.0
07/24/2020 11:00 574.10 0.00 -- 73.9 62.0
07/24/2020 10:00 574.11 0.00 -- 72.2 57.0
07/24/2020 09:00 574.11 0.00 -- 69.1 55.0
07/24/2020 08:00 574.09 0.00 -- 66.1 54.0
07/24/2020 07:00 574.11 0.00 -- 64.7 57.0
07/24/2020 06:00 574.10 0.00 -- 65.6 59.0
07/24/2020 05:00 574.12 0.00 -- 66.9 63.0
07/24/2020 04:00 574.11 0.00 -- 68.5 62.0
07/24/2020 03:00 574.10 0.00 -- 69.3 63.0
07/24/2020 02:00 574.10 0.00 -- 70.9 63.0
07/24/2020 01:00 574.10 0.00 -- 70.0 64.0
07/24/2020 00:00 574.11 0.00 0.00 71.8 65.0
07/23/2020 23:00 574.11 0.00 -- 71.8 66.0
07/23/2020 22:00 574.11 0.00 -- 72.3 67.0
07/23/2020 21:00 574.11 0.00 -- 72.3 70.0
07/23/2020 20:00 574.10 0.00 -- 72.7 71.0
07/23/2020 19:00 574.13 0.00 -- 73.7 69.0
07/23/2020 18:00 574.10 0.00 -- 74.9 69.0
07/23/2020 17:00 574.12 0.00 -- 75.4 70.0
07/23/2020 16:00 574.10 0.00 -- 76.9 72.0
07/23/2020 15:00 574.10 0.00 -- 76.9 76.0
07/23/2020 14:00 574.10 0.00 -- 76.2 99.0
07/23/2020 13:00 574.10 0.00 -- 73.8 100.0
07/23/2020 12:00 574.11 0.00 -- 73.3 100.0
07/23/2020 11:00 574.09 0.00 -- 72.1 100.0
07/23/2020 10:00 574.07 0.00 -- 70.8 100.0
07/23/2020 09:00 574.09 0.00 -- 68.5 100.0
07/23/2020 08:00 574.08 0.00 -- 65.5 100.0
07/23/2020 07:00 574.12 0.00 -- 64.4 100.0
07/23/2020 06:00 574.10 0.00 -- 63.5 100.0
07/23/2020 05:00 574.09 0.00 -- 63.8 100.0
07/23/2020 04:00 574.09 0.00 -- 64.3 100.0
07/23/2020 03:00 574.10 0.00 -- 63.3 100.0
07/23/2020 02:00 574.11 0.00 -- 63.0 100.0
07/23/2020 01:00 574.12 0.00 -- 63.0 100.0
07/23/2020 00:00 574.12 0.00 0.00 63.7 100.0
07/22/2020 23:00 574.12 0.00 -- 64.9 100.0
07/22/2020 22:00 574.08 0.00 -- 68.2 100.0
07/22/2020 21:00 574.07 0.00 -- 68.2 100.0
07/22/2020 20:00 574.09 0.00 -- 69.5 100.0
07/22/2020 19:00 574.08 0.00 -- 71.0 100.0
07/22/2020 18:00 574.09 0.00 -- 71.9 100.0
07/22/2020 17:00 574.07 0.00 -- 72.6 100.0
07/22/2020 16:00 574.09 0.00 -- 70.2 100.0
07/22/2020 15:00 574.09 0.00 -- 70.2 100.0
07/22/2020 14:00 574.09 0.00 -- 70.6 100.0
07/22/2020 13:00 574.07 0.00 -- 71.8 100.0
07/22/2020 12:00 574.08 0.00 -- 70.9 100.0
07/22/2020 11:00 574.10 0.00 -- 69.6 100.0
07/22/2020 10:00 574.10 0.00 -- 68.0 100.0
07/22/2020 09:00 574.10 0.00 -- 67.6 100.0
07/22/2020 08:00 574.09 0.00 -- 65.0 100.0
07/22/2020 07:00 574.08 0.00 -- 64.2 100.0
07/22/2020 06:00 574.07 0.00 -- 64.8 100.0
07/22/2020 05:00 574.08 0.00 -- 65.0 100.0
07/22/2020 04:00 574.07 0.00 -- 63.9 100.0
07/22/2020 03:00 574.09 0.00 -- 64.6 100.0
07/22/2020 02:00 574.09 0.00 -- 66.7 100.0
07/22/2020 01:00 574.08 0.00 -- 67.0 100.0
07/22/2020 00:00 574.08 0.00 0.00 67.5 100.0
07/21/2020 23:00 574.08 0.00 -- 68.7 100.0
07/21/2020 22:00 574.09 0.00 -- 69.6 100.0
07/21/2020 21:00 -- -- -- 72.8 100.0
07/21/2020 20:00 -- -- -- 76.3 100.0
07/21/2020 19:00 -- -- -- 81.3 100.0
07/21/2020 18:00 -- -- -- 82.2 100.0
07/21/2020 17:00 -- -- -- 82.2 100.0
07/21/2020 16:00 -- -- -- 82.6 100.0
07/21/2020 15:00 -- -- -- 81.2 100.0
07/21/2020 14:00 -- -- -- 80.2 100.0
07/21/2020 13:00 -- -- -- 78.8 100.0
07/21/2020 12:00 -- -- -- 77.2 100.0
07/21/2020 11:00 -- -- -- 76.1 100.0
07/21/2020 10:00 -- -- -- 74.3 100.0
07/21/2020 09:00 -- -- -- 72.8 100.0
07/21/2020 08:00 -- -- -- 70.4 100.0
07/21/2020 07:00 -- -- -- 66.9 100.0
07/21/2020 06:00 -- -- -- 69.3 100.0
07/21/2020 05:00 -- -- -- 71.5 100.0
07/21/2020 04:00 -- -- -- 68.7 100.0
07/21/2020 03:00 -- -- -- 70.0 100.0
07/21/2020 02:00 -- -- -- 70.9 100.0
07/21/2020 01:00 -- -- -- 71.5 100.0
07/21/2020 00:00 -- -- 0.00 71.9 100.0